M I D A S
Marine Information and Data Acquisition System
Tripno 1886 of the Zeeleeuw from 2010-05-25 07:47:05 to 2010-05-25 14:29:09
Back to CruiseResearch ActivitiesStationsMapUnderway DataData graphs

EquipmentUnitsComment
TimeDGPSUTC
LatitudeDGPSDM.mWGS84
LongitudeDGPSDM.mWGS84
TemperatureSBE03/SBE38deg celciusITS90
ConductivitySBE21S/mITS90
SalinitySBE21 Practical Salinity Units
ChlorophylAChelsea fluorimeterg/lCalibrated in Aceton
Missing or incorrect values are displayed as -999
Sea surface data collected by the RV Zeeleeuw from 2010-05-25 07:35:30 to 2010-05-25 14:38:49
                                                                                    Next 1000 lines
Time Latitude Longitude Temperature Conductivity Salinity ChlorophylA
2010-05-25 07:35:40 51°13.661 2°55.96 21.3011 0.081497 0.426825 -1.035392
2010-05-25 07:35:45 51°13.661 2°55.96 21.3 0.081497 0.426825 -1.035392
2010-05-25 07:35:50 51°13.661 2°55.96 21.2988 0.081393 0.426274 -1.000568
2010-05-25 07:35:55 51°13.661 2°55.96 21.2765 0.081497 0.426851 -1.035392
2010-05-25 07:36:00 51°13.66 2°55.96 21.255 0.081393 0.426287 -1.035392
2010-05-25 07:36:05 51°13.661 2°55.959 21.1558 0.081393 0.426294 -1.000568
2010-05-25 07:36:10 51°13.661 2°55.957 20.9958 0.081497 0.426857 -1.035392
2010-05-25 07:36:15 51°13.662 2°55.954 21.2133 0.081497 0.426857 -1.035392
2010-05-25 07:36:20 51°13.663 2°55.95 21.274 0.081393 0.426287 -1.000568
2010-05-25 07:36:25 51°13.664 2°55.946 21.236 0.081497 0.426844 -1.000568
2010-05-25 07:36:30 51°13.665 2°55.94 21.2859 0.081393 0.426287 -1.035392
2010-05-25 07:36:36 51°13.667 2°55.932 21.2902 0.081393 0.426281 -1.070216
2010-05-25 07:36:41 51°13.669 2°55.925 21.2984 0.081393 0.426287 -1.000568
2010-05-25 07:36:47 51°13.671 2°55.915 21.261 0.081393 0.426287 -1.000568
2010-05-25 07:36:52 51°13.672 2°55.907 21.2866 0.081497 0.42687 -1.000568
2010-05-25 07:36:58 51°13.675 2°55.896 21.3263 0.081393 0.426313 -1.070216
2010-05-25 07:37:03 51°13.677 2°55.886 21.3448 0.081393 0.426326 -1.000568
2010-05-25 07:37:08 51°13.678 2°55.877 21.3414 0.081393 0.426332 -1.000568
2010-05-25 07:37:13 51°13.68 2°55.868 21.3428 0.081393 0.426339 -1.000568
2010-05-25 07:37:18 51°13.682 2°55.858 21.3534 0.081393 0.426339 -1.000568
2010-05-25 07:37:23 51°13.683 2°55.849 21.3625 0.081393 0.426332 -1.000568
2010-05-25 07:37:28 51°13.685 2°55.84 21.3463 0.081393 0.426332 -1.035392
2010-05-25 07:37:33 51°13.686 2°55.831 21.3386 0.081393 0.426339 -1.000568
2010-05-25 07:37:38 51°13.688 2°55.822 21.3376 0.081393 0.426339 -1.000568
2010-05-25 07:37:43 51°13.689 2°55.813 21.3387 0.081393 0.426339 -1.000568
2010-05-25 07:37:48 51°13.691 2°55.805 21.3386 0.081393 0.426339 -1.000568
2010-05-25 07:37:53 51°13.692 2°55.797 21.3377 0.081393 0.426332 -1.000568
2010-05-25 07:37:58 51°13.693 2°55.789 21.3381 0.081393 0.426345 -1.000568
2010-05-25 07:38:03 51°13.694 2°55.782 21.3297 0.081393 0.426352 -1.035392
2010-05-25 07:38:08 51°13.695 2°55.775 21.3333 0.081393 0.426345 -1.035392
2010-05-25 07:38:12 51°13.695 2°55.769 21.3369 0.081393 0.426358 -1.000568
2010-05-25 07:38:17 51°13.696 2°55.762 21.3297 0.081393 0.426358 -1.000568
2010-05-25 07:38:22 51°13.697 2°55.756 21.3337 0.081393 0.426365 -1.035392
2010-05-25 07:38:27 51°13.698 2°55.751 21.3438 0.081393 0.426365 -1.000568
2010-05-25 07:38:32 51°13.698 2°55.747 21.3522 0.081393 0.426371 -1.000568
2010-05-25 07:38:36 51°13.698 2°55.745 21.354 0.081393 0.426378 -1.035392
2010-05-25 07:38:41 51°13.699 2°55.743 21.3868 0.081393 0.426378 -1.000568
2010-05-25 07:38:46 51°13.699 2°55.743 21.3595 0.081393 0.426384 -1.035392
2010-05-25 07:38:51 51°13.7 2°55.743 21.339 0.081393 0.426384 -1.035392
2010-05-25 07:38:56 51°13.701 2°55.743 21.3514 0.081393 0.426384 -1.000568
2010-05-25 07:39:00 51°13.701 2°55.743 21.3416 0.081393 0.426391 -1.000568
2010-05-25 07:39:05 51°13.702 2°55.744 21.2538 0.081393 0.426397 -1.000568
2010-05-25 07:39:10 51°13.703 2°55.744 21.209 0.081393 0.426404 -1.035392
2010-05-25 07:39:15 51°13.704 2°55.744 21.2436 0.081393 0.426404 -1.035392
2010-05-25 07:39:20 51°13.704 2°55.743 21.1637 0.081393 0.426416 -1.035392
2010-05-25 07:39:24 51°13.704 2°55.742 21.2132 0.081393 0.426416 -1.000568
2010-05-25 07:39:30 51°13.703 2°55.74 21.2748 0.081393 0.426423 -1.035392
2010-05-25 07:39:35 51°13.701 2°55.737 21.2965 0.081393 0.42641 -1.035392
2010-05-25 07:39:40 51°13.7 2°55.735 21.2989 0.081393 0.42641 -1.000568
2010-05-25 07:39:44 51°13.699 2°55.733 21.317 0.081393 0.42641 -1.000568
2010-05-25 07:39:50 51°13.697 2°55.731 21.312 0.081393 0.426404 -1.000568
2010-05-25 07:39:56 51°13.695 2°55.728 21.3114 0.081393 0.426397 -1.000568
2010-05-25 07:40:01 51°13.694 2°55.726 21.3212 0.081393 0.426404 -0.965744
2010-05-25 07:40:07 51°13.692 2°55.725 21.3328 0.081393 0.426404 -1.035392
2010-05-25 07:40:12 51°13.693 2°55.724 21.3314 0.081393 0.42641 -1.000568
2010-05-25 07:40:18 51°13.693 2°55.723 21.3321 0.081393 0.42641 -1.000568
2010-05-25 07:40:23 51°13.695 2°55.723 21.3503 0.081393 0.426423 -0.965744
2010-05-25 07:40:28 51°13.697 2°55.722 21.4042 0.081393 0.426429 -1.000568
2010-05-25 07:40:33 51°13.7 2°55.721 21.4009 0.081393 0.426436 -1.035392
2010-05-25 07:40:38 51°13.704 2°55.719 21.3936 0.081393 0.426449 -1.000568
2010-05-25 07:40:43 51°13.707 2°55.718 21.3721 0.081393 0.426455 -1.000568
2010-05-25 07:40:48 51°13.712 2°55.715 21.3615 0.081393 0.426455 -1.000568
2010-05-25 07:40:53 51°13.717 2°55.713 21.3548 0.081393 0.426449 -1.000568
2010-05-25 07:40:57 51°13.722 2°55.71 21.297 0.081393 0.426449 -1.035392
2010-05-25 07:41:02 51°13.728 2°55.707 21.3 0.081393 0.426442 -1.000568
2010-05-25 07:41:08 51°13.735 2°55.702 21.31 0.081393 0.426436 -1.035392
2010-05-25 07:41:12 51°13.741 2°55.699 21.286 0.081393 0.426436 -1.000568
2010-05-25 07:41:16 51°13.747 2°55.695 21.2563 0.081393 0.426436 -1.000568
2010-05-25 07:41:21 51°13.754 2°55.69 21.2246 0.081393 0.426442 -1.035392
2010-05-25 07:41:26 51°13.762 2°55.685 21.1906 0.081393 0.426449 -1.000568
2010-05-25 07:41:31 51°13.77 2°55.68 21.1617 0.081393 0.426468 -1.000568
2010-05-25 07:41:36 51°13.778 2°55.674 21.14 0.081393 0.426475 -1.000568
2010-05-25 07:41:40 51°13.785 2°55.669 21.1375 0.081393 0.426481 -1.035392
2010-05-25 07:41:45 51°13.793 2°55.662 21.1415 0.081393 0.426481 -1.035392
2010-05-25 07:41:50 51°13.802 2°55.656 21.1459 0.081393 0.426488 -1.000568
2010-05-25 07:41:55 51°13.811 2°55.649 21.1594 0.081393 0.426488 -1.000568
2010-05-25 07:42:00 51°13.82 2°55.642 21.1549 0.081393 0.426501 -1.035392
2010-05-25 07:42:05 51°13.829 2°55.635 21.163 0.081393 0.426501 -1.000568
2010-05-25 07:42:10 51°13.839 2°55.627 21.144 0.081393 0.426501 -1.035392
2010-05-25 07:42:15 51°13.848 2°55.619 21.096 0.081393 0.426501 -1.035392
2010-05-25 07:42:20 51°13.857 2°55.611 21.0922 0.081393 0.426514 -1.000568
2010-05-25 07:42:25 51°13.867 2°55.603 21.0864 0.081393 0.42652 -1.000568
2010-05-25 07:42:30 51°13.877 2°55.595 21.1032 0.081393 0.42652 -1.000568
2010-05-25 07:42:35 51°13.887 2°55.588 21.1397 0.081393 0.426527 -1.035392
2010-05-25 07:42:40 51°13.897 2°55.581 21.117 0.081393 0.426533 -1.000568
2010-05-25 07:42:45 51°13.908 2°55.574 21.1376 0.081393 0.426533 -1.000568
2010-05-25 07:42:50 51°13.918 2°55.567 21.1409 0.081393 0.426546 -1.035392
2010-05-25 07:42:55 51°13.928 2°55.56 21.152 0.081393 0.426546 -1.035392
2010-05-25 07:43:00 51°13.939 2°55.552 21.1656 0.081393 0.426552 -1.035392
2010-05-25 07:43:05 51°13.949 2°55.545 21.1824 0.081393 0.426552 -1.035392
2010-05-25 07:43:10 51°13.959 2°55.538 21.1855 0.081393 0.426559 -1.000568
2010-05-25 07:43:15 51°13.97 2°55.53 21.1906 0.081393 0.426559 -1.000568
2010-05-25 07:43:20 51°13.98 2°55.523 21.1532 0.081393 0.426559 -1.000568
2010-05-25 07:43:24 51°13.989 2°55.517 21.1975 0.081393 0.426565 -1.035392
2010-05-25 07:43:30 51°14.002 2°55.508 21.1908 0.081393 0.426578 -1.035392
2010-05-25 07:43:35 51°14.012 2°55.501 21.1697 0.081393 0.426591 -1.000568
2010-05-25 07:43:40 51°14.023 2°55.493 21.1373 0.081393 0.426591 -1.035392
2010-05-25 07:43:44 51°14.031 2°55.487 21.1517 0.081393 0.426591 -1.035392
2010-05-25 07:43:50 51°14.044 2°55.477 21.1377 0.081393 0.426604 -1.035392
2010-05-25 07:43:55 51°14.055 2°55.469 21.193 0.081393 0.426604 -1.000568
2010-05-25 07:44:00 51°14.065 2°55.461 21.1946 0.081393 0.426604 -1.000568
2010-05-25 07:44:05 51°14.076 2°55.453 21.2147 0.081393 0.426604 -0.965744
2010-05-25 07:44:09 51°14.085 2°55.447 21.1909 0.081393 0.426617 -1.035392
2010-05-25 07:44:15 51°14.097 2°55.436 21.1683 0.081393 0.426617 -1.035392
2010-05-25 07:44:20 51°14.108 2°55.427 21.1543 0.081393 0.426617 -1.000568
2010-05-25 07:44:24 51°14.117 2°55.42 21.0703 0.081393 0.426624 -0.965744
2010-05-25 07:44:30 51°14.13 2°55.409 21.0897 0.081393 0.42663 -1.035392
2010-05-25 07:44:35 51°14.142 2°55.4 21.0055 0.081393 0.42663 -1.000568
2010-05-25 07:44:40 51°14.153 2°55.391 20.8419 0.081393 0.426637 -1.035392
2010-05-25 07:44:45 51°14.165 2°55.382 20.8179 0.081393 0.426637 -1.035392
2010-05-25 07:44:50 51°14.177 2°55.373 20.8868 0.081393 0.426643 -1.000568
2010-05-25 07:44:55 51°14.188 2°55.363 20.9359 0.081393 0.426656 -1.000568
2010-05-25 07:45:00 51°14.2 2°55.354 20.9971 0.081393 0.426663 -1.035392
2010-05-25 07:45:05 51°14.212 2°55.344 20.9618 0.081393 0.426669 -1.035392
2010-05-25 07:45:10 51°14.224 2°55.333 20.8981 0.081393 0.426682 -1.035392
2010-05-25 07:45:15 51°14.236 2°55.322 20.9319 0.081393 0.426682 -1.035392
2010-05-25 07:45:20 51°14.248 2°55.311 20.9273 0.081393 0.426689 -1.035392
2010-05-25 07:45:25 51°14.26 2°55.299 20.9805 0.081393 0.426682 -1.000568
2010-05-25 07:45:30 51°14.272 2°55.287 20.9346 0.081289 0.426111 -1.035392
2010-05-25 07:45:35 51°14.285 2°55.275 20.98 0.081393 0.426689 -1.000568
2010-05-25 07:45:40 51°14.297 2°55.263 21.0087 0.081289 0.426124 -1.035392
2010-05-25 07:45:44 51°14.307 2°55.253 21.0019 0.081289 0.426124 -1.035392
2010-05-25 07:45:50 51°14.322 2°55.238 20.9216 0.081289 0.426137 -1.035392
2010-05-25 07:45:55 51°14.335 2°55.225 20.8117 0.081393 0.426708 -1.000568
2010-05-25 07:46:00 51°14.348 2°55.213 20.7568 0.081393 0.426721 -1.000568
2010-05-25 07:46:05 51°14.362 2°55.201 20.8829 0.081393 0.426727 -1.000568
2010-05-25 07:46:10 51°14.375 2°55.189 20.9757 0.081289 0.426176 -1.000568
2010-05-25 07:46:15 51°14.388 2°55.175 20.8794 0.081289 0.426176 -1.000568
2010-05-25 07:46:20 51°14.401 2°55.161 20.782 0.081289 0.426189 -1.000568
2010-05-25 07:46:24 51°14.411 2°55.149 20.7509 0.081393 0.426773 -1.000568
2010-05-25 07:46:30 51°14.426 2°55.13 20.7237 0.081289 0.426215 -1.000568
2010-05-25 07:46:35 51°14.439 2°55.115 20.7218 0.081289 0.426221 -1.035392
2010-05-25 07:46:40 51°14.452 2°55.099 20.6853 0.081289 0.426221 -1.035392
2010-05-25 07:46:45 51°14.465 2°55.083 20.7069 0.081289 0.426221 -1.035392
2010-05-25 07:46:49 51°14.475 2°55.071 20.7377 0.081289 0.426228 -1.000568
2010-05-25 07:46:55 51°14.492 2°55.052 20.7384 0.081289 0.426228 -1.000568
2010-05-25 07:47:00 51°14.506 2°55.037 20.6709 0.081289 0.426234 -1.035392
2010-05-25 07:47:05 51°14.52 2°55.022 20.7384 0.081289 0.426247 -1.035392
2010-05-25 07:47:10 51°14.535 2°55.008 20.7817 0.081289 0.42626 -1.000568
2010-05-25 07:47:15 51°14.55 2°54.993 20.8371 0.081289 0.42626 -1.000568
2010-05-25 07:47:20 51°14.565 2°54.978 20.8794 0.081289 0.426273 -1.035392
2010-05-25 07:47:25 51°14.579 2°54.963 20.8871 0.081289 0.426286 -1.035392
2010-05-25 07:47:30 51°14.593 2°54.946 20.8797 0.081289 0.426305 -1.035392
2010-05-25 07:47:35 51°14.607 2°54.928 20.896 0.081289 0.426312 -1.000568
2010-05-25 07:47:40 51°14.621 2°54.91 20.8362 0.081289 0.426331 -1.035392
2010-05-25 07:47:44 51°14.632 2°54.895 20.7971 0.081289 0.426331 -1.035392
2010-05-25 07:47:50 51°14.648 2°54.872 20.7601 0.081289 0.426331 -1.000568
2010-05-25 07:47:55 51°14.662 2°54.852 20.8503 0.081289 0.426344 -1.035392
2010-05-25 07:48:00 51°14.676 2°54.833 20.7311 0.081289 0.426344 -1.000568
2010-05-25 07:48:04 51°14.687 2°54.818 20.8486 0.081289 0.426357 -1.000568
2010-05-25 07:48:10 51°14.703 2°54.795 20.823 0.081289 0.426377 -1.035392
2010-05-25 07:48:15 51°14.717 2°54.776 20.7688 0.081289 0.426377 -1.035392
2010-05-25 07:48:20 51°14.731 2°54.757 20.7148 0.081289 0.42639 -0.965744
2010-05-25 07:48:24 51°14.743 2°54.743 20.7447 0.081289 0.426403 -1.035392
2010-05-25 07:48:30 51°14.761 2°54.722 20.7739 0.081289 0.426416 -1.035392
2010-05-25 07:48:35 51°14.776 2°54.706 20.7926 0.081289 0.426474 -1.035392
2010-05-25 07:48:40 51°14.791 2°54.691 20.862 0.081289 0.426675 -1.000568
2010-05-25 07:48:44 51°14.804 2°54.679 20.8737 0.081289 0.426675 -1.000568
2010-05-25 07:48:50 51°14.822 2°54.66 20.8342 0.081289 0.426805 -1.035392
2010-05-25 07:48:55 51°14.838 2°54.644 20.8061 0.081289 0.426812 -1.000568
2010-05-25 07:49:00 51°14.853 2°54.627 20.8039 0.081289 0.426721 -1.035392
2010-05-25 07:49:05 51°14.868 2°54.612 20.8065 0.081289 0.426545 -1.000568
2010-05-25 07:49:10 51°14.883 2°54.595 20.81 0.081289 0.426383 -1.000568
2010-05-25 07:49:15 51°14.899 2°54.58 20.8143 0.081289 0.426383 -1.000568
2010-05-25 07:49:20 51°14.914 2°54.564 20.7797 0.081289 0.426254 -1.000568
2010-05-25 07:49:25 51°14.929 2°54.548 20.8273 0.081289 0.42628 -1.000568
2010-05-25 07:49:30 51°14.944 2°54.531 20.7996 0.081289 0.426351 -1.000568
2010-05-25 07:49:35 51°14.959 2°54.515 20.8039 0.081289 0.4265 -1.035392
2010-05-25 07:49:40 51°14.974 2°54.499 20.8319 0.081289 0.426643 -1.000568
2010-05-25 07:49:45 51°14.989 2°54.483 20.8299 0.081289 0.426727 -1.000568
2010-05-25 07:49:50 51°15.004 2°54.467 20.7521 0.081289 0.426727 -1.000568
2010-05-25 07:49:55 51°15.019 2°54.45 20.8024 0.081289 0.42676 -1.035392
2010-05-25 07:50:00 51°15.034 2°54.434 20.8609 0.081289 0.426734 -1.000568
2010-05-25 07:50:05 51°15.049 2°54.418 20.8541 0.081185 0.426136 -1.000568
2010-05-25 07:50:10 51°15.064 2°54.401 20.7623 0.081185 0.426104 -1.035392
2010-05-25 07:50:15 51°15.079 2°54.384 20.8521 0.081185 0.426104 -1.035392
2010-05-25 07:50:20 51°15.093 2°54.366 20.8262 0.081289 0.426604 -1.000568
2010-05-25 07:50:24 51°15.104 2°54.351 20.7695 0.081185 0.426019 -1.000568
2010-05-25 07:50:30 51°15.121 2°54.329 20.7618 0.081289 0.426578 -1.000568
2010-05-25 07:50:35 51°15.135 2°54.309 20.8177 0.081185 0.426078 -1.035392
2010-05-25 07:50:40 51°15.148 2°54.29 20.7939 0.081185 0.426162 -1.000568
2010-05-25 07:50:44 51°15.159 2°54.274 20.7369 0.081185 0.426162 -1.000568
2010-05-25 07:50:50 51°15.175 2°54.25 20.7471 0.081185 0.426266 -1.035392
2010-05-25 07:50:55 51°15.189 2°54.231 20.7831 0.081185 0.426331 -1.000568
2010-05-25 07:51:00 51°15.203 2°54.212 20.7183 0.081185 0.42635 -1.000568
2010-05-25 07:51:04 51°15.214 2°54.196 20.7546 0.081185 0.42635 -1.000568
2010-05-25 07:51:10 51°15.231 2°54.175 20.7713 0.081185 0.426331 -1.035392
2010-05-25 07:51:15 51°15.245 2°54.156 20.7987 0.081185 0.426311 -1.000568
2010-05-25 07:51:20 51°15.26 2°54.138 20.7433 0.081185 0.426311 -1.000568
2010-05-25 07:51:25 51°15.274 2°54.119 20.7522 0.081185 0.426298 -1.000568
2010-05-25 07:51:30 51°15.288 2°54.101 20.7551 0.081185 0.426298 -1.035392
2010-05-25 07:51:35 51°15.303 2°54.083 20.7758 0.081185 0.426311 -1.035392
2010-05-25 07:51:40 51°15.317 2°54.065 20.7881 0.081185 0.426337 -1.035392
2010-05-25 07:51:45 51°15.331 2°54.046 20.7629 0.081185 0.426337 -1.035392
2010-05-25 07:51:50 51°15.345 2°54.028 20.7804 0.081185 0.426376 -1.035392
2010-05-25 07:51:55 51°15.36 2°54.009 20.7988 0.081185 0.426402 -1.035392
2010-05-25 07:52:00 51°15.374 2°53.991 20.8156 0.081185 0.426428 -1.035392
2010-05-25 07:52:05 51°15.388 2°53.973 20.805 0.081185 0.426448 -1.035392
2010-05-25 07:52:10 51°15.402 2°53.954 20.7763 0.081185 0.426467 -1.035392
2010-05-25 07:52:15 51°15.416 2°53.935 20.7655 0.081185 0.426467 -1.035392
2010-05-25 07:52:20 51°15.43 2°53.917 20.7747 0.081185 0.426487 -1.000568
2010-05-25 07:52:24 51°15.441 2°53.902 20.794 0.081185 0.4265 -1.000568
2010-05-25 07:52:30 51°15.458 2°53.88 20.7357 0.081185 0.426526 -1.035392
2010-05-25 07:52:35 51°15.472 2°53.861 20.7283 0.081081 0.425979 -1.035392
2010-05-25 07:52:40 51°15.487 2°53.843 20.7709 0.081081 0.426005 -1.035392
2010-05-25 07:52:44 51°15.498 2°53.829 20.7655 0.081081 0.426005 -1.035392
2010-05-25 07:52:50 51°15.516 2°53.807 20.769 0.081185 0.426578 -1.035392
2010-05-25 07:52:55 51°15.53 2°53.789 20.7465 0.081081 0.426044 -1.035392
2010-05-25 07:53:00 51°15.544 2°53.771 20.7397 0.081081 0.426064 -1.035392
2010-05-25 07:53:05 51°15.558 2°53.753 20.7975 0.081081 0.426083 -1.035392
2010-05-25 07:53:10 51°15.572 2°53.735 20.7882 0.081081 0.42609 -1.000568
2010-05-25 07:53:15 51°15.587 2°53.716 20.7774 0.081081 0.42609 -1.000568
2010-05-25 07:53:20 51°15.601 2°53.698 20.7743 0.081081 0.426109 -1.000568
2010-05-25 07:53:25 51°15.615 2°53.679 20.7719 0.081081 0.426142 -1.000568
2010-05-25 07:53:30 51°15.629 2°53.661 20.7807 0.081081 0.426161 -1.000568
2010-05-25 07:53:35 51°15.643 2°53.643 20.7422 0.081081 0.426187 -1.035392
2010-05-25 07:53:40 51°15.658 2°53.626 20.7653 0.081081 0.426213 -1.035392
2010-05-25 07:53:45 51°15.672 2°53.609 20.7621 0.081081 0.426213 -1.035392
2010-05-25 07:53:50 51°15.687 2°53.592 20.7486 0.081081 0.426233 -1.035392
2010-05-25 07:53:55 51°15.702 2°53.574 20.789 0.081081 0.426259 -1.000568
2010-05-25 07:54:00 51°15.717 2°53.558 20.7093 0.081081 0.426259 -1.035392
2010-05-25 07:54:05 51°15.732 2°53.542 20.7776 0.081081 0.426285 -1.035392
2010-05-25 07:54:10 51°15.747 2°53.526 20.7068 0.081081 0.426298 -1.035392
2010-05-25 07:54:15 51°15.762 2°53.51 20.7297 0.081081 0.426298 -1.035392
2010-05-25 07:54:20 51°15.777 2°53.494 20.7556 0.081081 0.426317 -1.035392
2010-05-25 07:54:24 51°15.789 2°53.482 20.7326 0.081081 0.42635 -1.000568
2010-05-25 07:54:30 51°15.807 2°53.463 20.7506 0.080977 0.425803 -1.000568
2010-05-25 07:54:35 51°15.823 2°53.449 20.7075 0.080977 0.425829 -1.000568
2010-05-25 07:54:40 51°15.839 2°53.434 20.752 0.080977 0.425855 -1.035392
2010-05-25 07:54:44 51°15.851 2°53.422 20.7429 0.080977 0.425855 -1.035392
2010-05-25 07:54:50 51°15.87 2°53.405 20.7257 0.080977 0.425881 -1.035392
2010-05-25 07:54:55 51°15.885 2°53.39 20.7302 0.080977 0.425901 -1.070216
2010-05-25 07:55:00 51°15.901 2°53.376 20.7436 0.080977 0.425914 -1.000568
2010-05-25 07:55:04 51°15.914 2°53.365 20.7653 0.080977 0.42594 -1.000568
2010-05-25 07:55:10 51°15.932 2°53.348 20.7612 0.080977 0.425953 -1.000568
2010-05-25 07:55:15 51°15.948 2°53.334 20.7367 0.080977 0.425953 -1.000568
2010-05-25 07:55:20 51°15.963 2°53.319 20.7622 0.080977 0.425985 -1.000568
2010-05-25 07:55:24 51°15.976 2°53.308 20.7394 0.080977 0.425998 -1.035392
2010-05-25 07:55:30 51°15.995 2°53.29 20.7695 0.080977 0.426024 -1.035392
2010-05-25 07:55:35 51°16.011 2°53.276 20.7468 0.080977 0.426044 -1.035392
2010-05-25 07:55:40 51°16.026 2°53.262 20.752 0.080977 0.426063 -1.000568
2010-05-25 07:55:44 51°16.039 2°53.25 20.7712 0.080977 0.426063 -1.000568
2010-05-25 07:55:50 51°16.057 2°53.233 20.778 0.080977 0.426089 -1.000568
2010-05-25 07:55:55 51°16.073 2°53.219 20.7499 0.080977 0.426109 -0.965744
2010-05-25 07:56:00 51°16.088 2°53.204 20.7668 0.080977 0.426135 -1.035392
2010-05-25 07:56:04 51°16.101 2°53.192 20.764 0.080977 0.426161 -1.035392
2010-05-25 07:56:10 51°16.119 2°53.173 20.7655 0.080977 0.426174 -1.000568
2010-05-25 07:56:15 51°16.134 2°53.158 20.7789 0.080977 0.426174 -1.000568
2010-05-25 07:56:20 51°16.149 2°53.142 20.7602 0.080977 0.426193 -1.000568
2010-05-25 07:56:24 51°16.161 2°53.13 20.7755 0.080873 0.425653 -1.000568
2010-05-25 07:56:30 51°16.179 2°53.11 20.7486 0.080873 0.425672 -1.000568
2010-05-25 07:56:35 51°16.194 2°53.095 20.7563 0.080873 0.425685 -1.000568
2010-05-25 07:56:40 51°16.209 2°53.079 20.7672 0.080873 0.425718 -1.035392
2010-05-25 07:56:45 51°16.224 2°53.063 20.7766 0.080873 0.425718 -1.035392
2010-05-25 07:56:50 51°16.239 2°53.046 20.7735 0.080873 0.425731 -1.035392
2010-05-25 07:56:55 51°16.254 2°53.03 20.7812 0.080873 0.42575 -1.000568
2010-05-25 07:57:00 51°16.27 2°53.015 20.7749 0.080873 0.42577 -1.000568
2010-05-25 07:57:04 51°16.282 2°53.002 20.7595 0.080873 0.425796 -1.035392
2010-05-25 07:57:10 51°16.3 2°52.983 20.7946 0.080873 0.425809 -1.000568
2010-05-25 07:57:15 51°16.314 2°52.967 20.7709 0.080873 0.425809 -1.000568
2010-05-25 07:57:20 51°16.329 2°52.95 20.7914 0.080873 0.425841 -1.035392
2010-05-25 07:57:24 51°16.341 2°52.936 20.7715 0.080873 0.425861 -1.000568
2010-05-25 07:57:30 51°16.358 2°52.916 20.8185 0.080873 0.425887 -1.035392
2010-05-25 07:57:35 51°16.373 2°52.899 20.7697 0.080873 0.4259 -1.000568
2010-05-25 07:57:40 51°16.387 2°52.881 20.7572 0.080873 0.425926 -1.035392
2010-05-25 07:57:44 51°16.399 2°52.867 20.7977 0.080873 0.425926 -1.035392
2010-05-25 07:57:50 51°16.416 2°52.847 20.7886 0.080873 0.425952 -1.035392
2010-05-25 07:57:55 51°16.43 2°52.829 20.8042 0.080873 0.425971 -1.035392
2010-05-25 07:58:00 51°16.444 2°52.811 20.7977 0.080873 0.425991 -1.000568
2010-05-25 07:58:04 51°16.456 2°52.797 20.8067 0.080873 0.426011 -1.000568
2010-05-25 07:58:10 51°16.473 2°52.776 20.8022 0.080873 0.426037 -1.000568
2010-05-25 07:58:15 51°16.487 2°52.758 20.7732 0.080873 0.426037 -1.000568
2010-05-25 07:58:20 51°16.502 2°52.741 20.8113 0.080873 0.42605 -1.035392
2010-05-25 07:58:25 51°16.516 2°52.724 20.8007 0.080873 0.426076 -1.035392
2010-05-25 07:58:30 51°16.53 2°52.706 20.8159 0.080873 0.426102 -1.035392
2010-05-25 07:58:35 51°16.544 2°52.688 20.8136 0.080769 0.425554 -1.035392
2010-05-25 07:58:40 51°16.559 2°52.67 20.8042 0.080873 0.426141 -1.035392
2010-05-25 07:58:45 51°16.572 2°52.652 20.8191 0.080873 0.426141 -1.035392
2010-05-25 07:58:50 51°16.587 2°52.634 20.8155 0.080769 0.425593 -1.000568
2010-05-25 07:58:55 51°16.6 2°52.615 20.8098 0.080769 0.425619 -1.000568
2010-05-25 07:59:00 51°16.614 2°52.596 20.8015 0.080769 0.425645 -1.000568
2010-05-25 07:59:04 51°16.625 2°52.581 20.8062 0.080769 0.425658 -1.000568
2010-05-25 07:59:10 51°16.641 2°52.559 20.8053 0.080769 0.425671 -1.035392
2010-05-25 07:59:15 51°16.655 2°52.541 20.8104 0.080769 0.425671 -1.035392
2010-05-25 07:59:20 51°16.669 2°52.522 20.8321 0.080769 0.42571 -1.000568
2010-05-25 07:59:24 51°16.68 2°52.507 20.792 0.080769 0.42573 -1.000568
2010-05-25 07:59:29 51°16.693 2°52.488 20.8395 0.080769 0.425749 -1.035392
2010-05-25 07:59:35 51°16.71 2°52.466 20.7975 0.080769 0.425769 -1.035392
2010-05-25 07:59:40 51°16.724 2°52.449 20.8227 0.080769 0.425789 -1.035392
2010-05-25 07:59:44 51°16.735 2°52.434 20.8076 0.080769 0.425789 -1.035392
2010-05-25 07:59:49 51°16.749 2°52.416 20.8434 0.080769 0.425821 -1.035392
2010-05-25 07:59:55 51°16.765 2°52.394 20.8091 0.080769 0.425821 -1.035392
2010-05-25 08:00:00 51°16.779 2°52.376 20.8363 0.080769 0.425854 -1.035392
2010-05-25 08:00:05 51°16.793 2°52.357 20.7928 0.080769 0.425867 -1.035392
2010-05-25 08:00:10 51°16.806 2°52.339 20.8313 0.080769 0.425886 -1.035392
2010-05-25 08:00:15 51°16.82 2°52.321 20.8201 0.080769 0.425886 -1.035392
2010-05-25 08:00:20 51°16.834 2°52.303 20.8101 0.080769 0.425919 -1.000568
2010-05-25 08:00:25 51°16.848 2°52.285 20.8217 0.080769 0.425932 -1.000568
2010-05-25 08:00:30 51°16.862 2°52.266 20.8437 0.080769 0.425965 -1.035392
2010-05-25 08:00:35 51°16.876 2°52.248 20.7979 0.080769 0.425991 -1.000568
2010-05-25 08:00:40 51°16.89 2°52.23 20.7759 0.080665 0.425462 -1.035392
2010-05-25 08:00:45 51°16.904 2°52.213 20.7998 0.080665 0.425462 -1.035392
2010-05-25 08:00:50 51°16.919 2°52.197 20.7782 0.080665 0.425469 -1.000568
2010-05-25 08:00:55 51°16.934 2°52.182 20.7593 0.080665 0.425482 -1.035392
2010-05-25 08:01:00 51°16.95 2°52.17 20.7882 0.080665 0.425495 -1.035392
2010-05-25 08:01:05 51°16.966 2°52.159 20.8058 0.080665 0.425514 -1.035392
2010-05-25 08:01:10 51°16.983 2°52.149 20.826 0.080665 0.425534 -1.000568
2010-05-25 08:01:15 51°16.999 2°52.139 20.8226 0.080665 0.425534 -1.000568
2010-05-25 08:01:20 51°17.016 2°52.129 20.8201 0.080665 0.425573 -1.035392
2010-05-25 08:01:24 51°17.028 2°52.12 20.8035 0.080665 0.425605 -1.035392
2010-05-25 08:01:30 51°17.048 2°52.108 20.821 0.080665 0.425632 -1.000568
2010-05-25 08:01:35 51°17.065 2°52.097 20.8169 0.080665 0.425651 -1.000568
2010-05-25 08:01:40 51°17.081 2°52.087 20.815 0.080665 0.425677 -1.035392
2010-05-25 08:01:44 51°17.094 2°52.08 20.8061 0.080665 0.425677 -1.035392
2010-05-25 08:01:50 51°17.115 2°52.07 20.8302 0.080665 0.425697 -1.035392
2010-05-25 08:01:55 51°17.131 2°52.062 20.8116 0.080665 0.425697 -1.000568
2010-05-25 08:02:00 51°17.148 2°52.055 20.8206 0.080665 0.425729 -1.035392
2010-05-25 08:02:04 51°17.162 2°52.05 20.8171 0.080665 0.425756 -1.000568
2010-05-25 08:02:10 51°17.183 2°52.041 20.8403 0.080665 0.425782 -1.035392
2010-05-25 08:02:15 51°17.2 2°52.035 20.822 0.080665 0.425782 -1.035392
2010-05-25 08:02:20 51°17.217 2°52.029 20.8456 0.080561 0.425239 -1.000568
2010-05-25 08:02:24 51°17.23 2°52.024 20.8295 0.080561 0.425259 -1.035392
2010-05-25 08:02:30 51°17.251 2°52.016 20.8599 0.080561 0.425285 -1.035392
2010-05-25 08:02:35 51°17.268 2°52.011 20.8305 0.080561 0.425298 -1.000568
2010-05-25 08:02:40 51°17.285 2°52.004 20.8579 0.080561 0.425344 -1.035392
2010-05-25 08:02:44 51°17.299 2°51.999 20.8346 0.080561 0.425344 -1.035392
2010-05-25 08:02:50 51°17.319 2°51.99 20.8555 0.080561 0.42535 -1.000568
2010-05-25 08:02:55 51°17.336 2°51.984 20.8606 0.080561 0.425376 -1.000568
2010-05-25 08:03:00 51°17.353 2°51.977 20.8657 0.080561 0.42539 -1.000568
2010-05-25 08:03:05 51°17.37 2°51.969 20.8688 0.080561 0.425403 -1.000568
2010-05-25 08:03:10 51°17.387 2°51.96 20.861 0.080561 0.425435 -1.000568
2010-05-25 08:03:15 51°17.404 2°51.951 20.8406 0.080561 0.425435 -1.000568
2010-05-25 08:03:20 51°17.42 2°51.942 20.881 0.080561 0.425455 -1.035392
2010-05-25 08:03:25 51°17.437 2°51.933 20.8503 0.080561 0.425474 -1.070216
2010-05-25 08:03:30 51°17.453 2°51.922 20.8611 0.080561 0.425514 -1.035392
2010-05-25 08:03:35 51°17.47 2°51.912 20.8452 0.080561 0.425514 -1.070216
2010-05-25 08:03:40 51°17.486 2°51.9 20.8568 0.080561 0.42554 -1.000568
2010-05-25 08:03:44 51°17.499 2°51.893 20.8434 0.080561 0.42554 -1.000568
2010-05-25 08:03:50 51°17.519 2°51.879 20.8589 0.080457 0.424997 -1.035392
2010-05-25 08:03:55 51°17.535 2°51.868 20.8665 0.080457 0.425004 -1.035392
2010-05-25 08:04:00 51°17.552 2°51.857 20.8636 0.080561 0.425592 -1.000568
2010-05-25 08:04:04 51°17.565 2°51.849 20.8493 0.080457 0.42503 -1.035392
2010-05-25 08:04:10 51°17.584 2°51.835 20.8527 0.080457 0.425056 -1.035392
2010-05-25 08:04:15 51°17.601 2°51.825 20.8635 0.080457 0.425056 -1.035392
2010-05-25 08:04:20 51°17.617 2°51.814 20.8539 0.080457 0.425049 -1.035392
2010-05-25 08:04:24 51°17.63 2°51.805 20.8673 0.080457 0.425062 -1.000568
2010-05-25 08:04:30 51°17.65 2°51.793 20.8694 0.080457 0.425043 -1.000568
2010-05-25 08:04:35 51°17.667 2°51.783 20.8547 0.080457 0.425049 -1.035392
2010-05-25 08:04:40 51°17.683 2°51.773 20.8715 0.080457 0.425082 -1.000568
2010-05-25 08:04:44 51°17.696 2°51.765 20.8755 0.080457 0.425082 -1.000568
2010-05-25 08:04:50 51°17.716 2°51.755 20.8739 0.080457 0.425121 -1.000568
2010-05-25 08:04:55 51°17.733 2°51.746 20.8818 0.080457 0.42518 -1.035392
2010-05-25 08:05:00 51°17.75 2°51.738 20.8755 0.080457 0.425226 -1.035392
2010-05-25 08:05:04 51°17.763 2°51.731 20.8694 0.080457 0.425284 -1.035392
2010-05-25 08:05:10 51°17.784 2°51.722 20.8909 0.080457 0.425311 -1.035392
2010-05-25 08:05:15 51°17.801 2°51.714 20.8798 0.080457 0.425311 -1.035392
2010-05-25 08:05:20 51°17.818 2°51.707 20.8799 0.080457 0.42533 -1.000568
2010-05-25 08:05:24 51°17.832 2°51.702 20.8904 0.080457 0.425337 -1.000568
2010-05-25 08:05:30 51°17.852 2°51.694 20.8972 0.080457 0.425337 -1.000568
2010-05-25 08:05:35 51°17.87 2°51.687 20.895 0.080353 0.424768 -1.035392
2010-05-25 08:05:40 51°17.887 2°51.68 20.8813 0.080353 0.424768 -1.000568
2010-05-25 08:05:45 51°17.904 2°51.674 20.8976 0.080353 0.424768 -1.000568
2010-05-25 08:05:50 51°17.921 2°51.668 20.894 0.080353 0.424768 -1.035392
2010-05-25 08:05:55 51°17.939 2°51.662 20.8912 0.080353 0.424787 -1.035392
2010-05-25 08:06:00 51°17.956 2°51.657 20.8801 0.080353 0.424813 -1.035392
2010-05-25 08:06:04 51°17.97 2°51.653 20.8956 0.080353 0.424826 -0.965744
2010-05-25 08:06:10 51°17.991 2°51.647 20.8965 0.080353 0.424879 -1.000568
2010-05-25 08:06:15 51°18.009 2°51.643 20.8997 0.080353 0.424879 -1.000568
2010-05-25 08:06:20 51°18.026 2°51.639 20.9011 0.080353 0.424885 -1.000568
2010-05-25 08:06:24 51°18.04 2°51.636 20.9024 0.080353 0.424911 -1.000568
2010-05-25 08:06:30 51°18.061 2°51.631 20.9063 0.080353 0.424892 -1.000568
2010-05-25 08:06:35 51°18.079 2°51.626 20.8983 0.080353 0.424741 -1.000568
2010-05-25 08:06:40 51°18.096 2°51.621 20.9032 0.080353 0.424631 -1.035392
2010-05-25 08:06:44 51°18.11 2°51.618 20.9101 0.080353 0.424631 -1.035392
2010-05-25 08:06:50 51°18.131 2°51.614 20.9088 0.080353 0.424604 -1.000568
2010-05-25 08:06:55 51°18.149 2°51.611 20.9153 0.080353 0.424657 -1.035392
2010-05-25 08:07:00 51°18.167 2°51.608 20.9036 0.080353 0.424728 -1.035392
2010-05-25 08:07:05 51°18.184 2°51.605 20.922 0.080353 0.4248 -1.000568
2010-05-25 08:07:10 51°18.202 2°51.603 20.9213 0.080353 0.424813 -1.035392
2010-05-25 08:07:15 51°18.22 2°51.6 20.9268 0.080353 0.424813 -1.035392
2010-05-25 08:07:20 51°18.237 2°51.597 20.9034 0.080353 0.424748 -1.035392
2010-05-25 08:07:25 51°18.255 2°51.594 20.9107 0.080249 0.42412 -1.035392
2010-05-25 08:07:30 51°18.272 2°51.59 20.9246 0.080353 0.424663 -1.000568
2010-05-25 08:07:35 51°18.29 2°51.588 20.9039 0.080249 0.424081 -1.000568
2010-05-25 08:07:40 51°18.308 2°51.585 20.9224 0.080249 0.42412 -1.035392
2010-05-25 08:07:45 51°18.325 2°51.583 20.9327 0.080249 0.42412 -1.035392
2010-05-25 08:07:50 51°18.343 2°51.58 20.9151 0.080249 0.42414 -1.000568
2010-05-25 08:07:55 51°18.36 2°51.577 20.9372 0.080249 0.424185 -1.035392
2010-05-25 08:08:00 51°18.378 2°51.575 20.9346 0.080249 0.424224 -1.000568
2010-05-25 08:08:04 51°18.392 2°51.573 20.9272 0.080249 0.424264 -0.965744
2010-05-25 08:08:10 51°18.413 2°51.57 20.9401 0.080249 0.424296 -1.035392
2010-05-25 08:08:15 51°18.431 2°51.568 20.9468 0.080249 0.424296 -1.035392
2010-05-25 08:08:20 51°18.449 2°51.565 20.9223 0.080249 0.424296 -1.000568
2010-05-25 08:08:24 51°18.463 2°51.563 20.9447 0.080249 0.424309 -1.000568
2010-05-25 08:08:30 51°18.483 2°51.559 20.9343 0.080249 0.42427 -1.000568
2010-05-25 08:08:35 51°18.501 2°51.556 20.9173 0.080249 0.424283 -1.000568
2010-05-25 08:08:40 51°18.518 2°51.553 20.9463 0.080249 0.424303 -1.035392
2010-05-25 08:08:45 51°18.534 2°51.551 20.9435 0.080249 0.424303 -1.035392
2010-05-25 08:08:50 51°18.551 2°51.549 20.9383 0.080249 0.42429 -1.035392
2010-05-25 08:08:55 51°18.568 2°51.546 20.9405 0.080249 0.424348 -1.000568
2010-05-25 08:09:00 51°18.584 2°51.544 20.9424 0.080249 0.424368 -1.000568
2010-05-25 08:09:05 51°18.6 2°51.541 20.9578 0.080249 0.424394 -1.035392
2010-05-25 08:09:10 51°18.617 2°51.539 20.9443 0.080249 0.424407 -1.035392
2010-05-25 08:09:15 51°18.633 2°51.536 20.953 0.080249 0.424407 -1.035392
2010-05-25 08:09:20 51°18.649 2°51.534 20.9507 0.080249 0.424427 -1.000568
2010-05-25 08:09:25 51°18.665 2°51.531 20.9572 0.080249 0.424407 -1.000568
2010-05-25 08:09:30 51°18.681 2°51.529 20.9413 0.080145 0.423844 -1.035392
2010-05-25 08:09:35 51°18.698 2°51.526 20.9523 0.080145 0.423851 -1.035392
2010-05-25 08:09:40 51°18.714 2°51.524 20.9535 0.080145 0.42387 -1.035392
2010-05-25 08:09:45 51°18.73 2°51.522 20.9615 0.080145 0.42387 -1.035392
2010-05-25 08:09:50 51°18.746 2°51.519 20.9558 0.080145 0.423877 -1.000568
2010-05-25 08:09:55 51°18.762 2°51.517 20.946 0.080145 0.423929 -1.035392
2010-05-25 08:10:00 51°18.779 2°51.514 20.9506 0.080145 0.423968 -1.035392
2010-05-25 08:10:05 51°18.795 2°51.511 20.9535 0.080145 0.424001 -1.000568
2010-05-25 08:10:10 51°18.811 2°51.508 20.9663 0.080145 0.424027 -1.000568
2010-05-25 08:10:15 51°18.827 2°51.506 20.9467 0.080145 0.424027 -1.000568
2010-05-25 08:10:20 51°18.843 2°51.504 20.9811 0.080145 0.424066 -1.000568
2010-05-25 08:10:24 51°18.856 2°51.502 20.9581 0.080145 0.424092 -1.035392
2010-05-25 08:10:30 51°18.876 2°51.499 20.971 0.080145 0.424151 -1.000568
2010-05-25 08:10:35 51°18.892 2°51.496 20.9687 0.080145 0.424164 -1.000568
2010-05-25 08:10:40 51°18.908 2°51.493 20.9672 0.080145 0.424183 -1.035392
2010-05-25 08:10:44 51°18.921 2°51.491 20.9809 0.080145 0.424183 -1.035392
2010-05-25 08:10:50 51°18.94 2°51.488 20.9801 0.080145 0.424177 -1.000568
2010-05-25 08:10:55 51°18.956 2°51.485 20.9641 0.080145 0.424203 -1.000568
2010-05-25 08:11:00 51°18.972 2°51.482 20.9836 0.080145 0.42421 -1.035392
2010-05-25 08:11:04 51°18.985 2°51.48 20.9687 0.080145 0.424236 -1.035392
2010-05-25 08:11:10 51°19.005 2°51.477 20.973 0.080145 0.424262 -1.035392
2010-05-25 08:11:15 51°19.021 2°51.475 20.9804 0.080145 0.424262 -1.035392
2010-05-25 08:11:20 51°19.037 2°51.473 20.9832 0.080041 0.423698 -1.000568
2010-05-25 08:11:24 51°19.05 2°51.471 20.985 0.080041 0.423731 -1.035392
2010-05-25 08:11:30 51°19.07 2°51.469 20.9882 0.080145 0.424314 -1.035392
2010-05-25 08:11:35 51°19.086 2°51.467 20.9919 0.080041 0.423796 -1.000568
2010-05-25 08:11:40 51°19.102 2°51.464 20.9786 0.080041 0.423822 -1.000568
2010-05-25 08:11:44 51°19.115 2°51.462 20.9977 0.080041 0.423822 -1.000568
2010-05-25 08:11:50 51°19.135 2°51.459 20.9881 0.080041 0.423842 -1.035392
2010-05-25 08:11:55 51°19.151 2°51.457 20.9872 0.080041 0.423881 -1.035392
2010-05-25 08:12:00 51°19.168 2°51.455 20.9942 0.080041 0.423894 -1.000568
2010-05-25 08:12:05 51°19.184 2°51.453 20.9899 0.080041 0.423914 -1.000568
2010-05-25 08:12:10 51°19.2 2°51.451 20.9961 0.080041 0.423947 -1.035392
2010-05-25 08:12:15 51°19.217 2°51.449 20.9878 0.080041 0.423947 -1.035392
2010-05-25 08:12:20 51°19.233 2°51.448 21.0067 0.080041 0.423973 -1.000568
2010-05-25 08:12:24 51°19.246 2°51.446 20.9892 0.080041 0.423992 -1.000568
2010-05-25 08:12:30 51°19.266 2°51.444 21.0074 0.080041 0.424012 -1.035392
2010-05-25 08:12:35 51°19.282 2°51.442 21.01 0.080041 0.424038 -1.035392
2010-05-25 08:12:40 51°19.299 2°51.44 21.0078 0.080041 0.424051 -1.000568
2010-05-25 08:12:44 51°19.312 2°51.438 21.0065 0.080041 0.424051 -1.000568
2010-05-25 08:12:50 51°19.331 2°51.436 21.0079 0.080041 0.424077 -1.035392
2010-05-25 08:12:55 51°19.348 2°51.435 21.0133 0.080041 0.424097 -1.035392
2010-05-25 08:13:00 51°19.364 2°51.433 21.0109 0.080041 0.42411 -1.000568
2010-05-25 08:13:04 51°19.377 2°51.431 21.0008 0.080041 0.424136 -1.035392
2010-05-25 08:13:10 51°19.397 2°51.429 21.0118 0.080041 0.424149 -1.035392
2010-05-25 08:13:15 51°19.414 2°51.426 21.007 0.080041 0.424149 -1.035392
2010-05-25 08:13:20 51°19.43 2°51.424 21.0144 0.079937 0.423592 -1.000568
2010-05-25 08:13:24 51°19.444 2°51.423 21.0034 0.080041 0.424169 -1.035392
2010-05-25 08:13:30 51°19.464 2°51.42 21.0172 0.079937 0.423611 -1.035392
2010-05-25 08:13:35 51°19.48 2°51.418 21.0158 0.079937 0.423611 -1.035392
2010-05-25 08:13:40 51°19.497 2°51.416 21.0104 0.079937 0.423624 -1.000568
2010-05-25 08:13:45 51°19.513 2°51.414 21.0194 0.079937 0.423624 -1.000568
2010-05-25 08:13:50 51°19.53 2°51.412 21.0167 0.079937 0.423624 -1.035392
2010-05-25 08:13:55 51°19.546 2°51.41 21.0179 0.079937 0.423631 -1.035392
2010-05-25 08:14:00 51°19.563 2°51.408 21.0253 0.079937 0.423644 -1.000568
2010-05-25 08:14:05 51°19.579 2°51.406 21.0231 0.079937 0.423644 -1.035392
2010-05-25 08:14:10 51°19.596 2°51.404 21.0253 0.079937 0.423657 -1.000568
2010-05-25 08:14:15 51°19.612 2°51.402 21.0257 0.079937 0.423657 -1.000568
2010-05-25 08:14:20 51°19.629 2°51.4 21.024 0.079937 0.42367 -1.000568
2010-05-25 08:14:25 51°19.645 2°51.398 21.0386 0.079937 0.42367 -1.035392
2010-05-25 08:14:30 51°19.662 2°51.396 21.0101 0.079937 0.423683 -1.035392
2010-05-25 08:14:35 51°19.678 2°51.394 21.0346 0.079937 0.423696 -1.035392
2010-05-25 08:14:40 51°19.695 2°51.392 21.0194 0.079937 0.423709 -1.035392
2010-05-25 08:14:45 51°19.711 2°51.39 21.0246 0.079937 0.423709 -1.035392
2010-05-25 08:14:50 51°19.727 2°51.387 21.0294 0.079937 0.423722 -1.000568
2010-05-25 08:14:55 51°19.744 2°51.385 21.0345 0.079937 0.423742 -1.000568
2010-05-25 08:15:00 51°19.76 2°51.383 21.0259 0.079937 0.423755 -1.035392
2010-05-25 08:15:04 51°19.773 2°51.381 21.0244 0.079937 0.423768 -1.035392
2010-05-25 08:15:10 51°19.793 2°51.379 21.03 0.079937 0.423781 -1.035392
2010-05-25 08:15:15 51°19.809 2°51.377 21.048 0.079937 0.423781 -1.035392
2010-05-25 08:15:20 51°19.825 2°51.375 21.0491 0.079937 0.423794 -1.035392
2010-05-25 08:15:25 51°19.842 2°51.373 21.045 0.079937 0.42382 -1.035392
2010-05-25 08:15:30 51°19.858 2°51.371 21.0363 0.079937 0.423827 -1.000568
2010-05-25 08:15:35 51°19.874 2°51.368 21.0388 0.079937 0.42386 -1.035392
2010-05-25 08:15:40 51°19.89 2°51.366 21.0354 0.079937 0.423866 -1.000568
2010-05-25 08:15:45 51°19.907 2°51.363 21.0337 0.079937 0.423866 -1.000568
2010-05-25 08:15:50 51°19.923 2°51.361 21.0548 0.079937 0.423892 -1.000568
2010-05-25 08:15:55 51°19.939 2°51.359 21.0424 0.079833 0.423328 -1.000568
2010-05-25 08:16:00 51°19.956 2°51.356 21.0482 0.079833 0.423348 -1.035392
2010-05-25 08:16:05 51°19.972 2°51.354 21.0498 0.079833 0.423367 -1.000568
2010-05-25 08:16:10 51°19.988 2°51.352 21.0556 0.079833 0.42338 -1.035392
2010-05-25 08:16:15 51°20.004 2°51.35 21.0443 0.079833 0.42338 -1.035392
2010-05-25 08:16:20 51°20.02 2°51.348 21.0582 0.079833 0.423406 -1.000568
2010-05-25 08:16:25 51°20.037 2°51.347 21.041 0.079833 0.42342 -1.000568
2010-05-25 08:16:30 51°20.053 2°51.345 21.0564 0.079833 0.423439 -1.035392
2010-05-25 08:16:35 51°20.069 2°51.343 21.0538 0.079833 0.423452 -1.035392
2010-05-25 08:16:40 51°20.085 2°51.341 21.0643 0.079833 0.423472 -1.000568
2010-05-25 08:16:45 51°20.101 2°51.339 21.0539 0.079833 0.423472 -1.000568
2010-05-25 08:16:50 51°20.117 2°51.336 21.0616 0.079833 0.423491 -1.000568
2010-05-25 08:16:55 51°20.134 2°51.335 21.0611 0.079833 0.423511 -1.000568
2010-05-25 08:17:00 51°20.15 2°51.333 21.0649 0.079833 0.423524 -1.035392
2010-05-25 08:17:04 51°20.163 2°51.332 21.0522 0.079833 0.423537 -1.035392
2010-05-25 08:17:10 51°20.182 2°51.33 21.0659 0.079833 0.42355 -1.000568
2010-05-25 08:17:15 51°20.199 2°51.328 21.056 0.079833 0.42355 -1.000568
2010-05-25 08:17:20 51°20.215 2°51.326 21.068 0.079833 0.42357 -1.000568
2010-05-25 08:17:24 51°20.228 2°51.324 21.05 0.079833 0.423583 -1.000568
2010-05-25 08:17:30 51°20.247 2°51.322 21.0642 0.079833 0.423596 -1.070216
2010-05-25 08:17:35 51°20.263 2°51.32 21.0739 0.079833 0.423609 -1.035392
2010-05-25 08:17:40 51°20.28 2°51.318 21.0724 0.079833 0.423629 -1.035392
2010-05-25 08:17:44 51°20.293 2°51.316 21.0518 0.079833 0.423629 -1.035392
2010-05-25 08:17:50 51°20.312 2°51.314 21.078 0.079833 0.423642 -1.035392
2010-05-25 08:17:55 51°20.328 2°51.312 21.0678 0.079833 0.423655 -1.000568
2010-05-25 08:18:00 51°20.344 2°51.31 21.0661 0.079833 0.423675 -1.000568
2010-05-25 08:18:04 51°20.357 2°51.308 21.0708 0.079833 0.423694 -1.035392
2010-05-25 08:18:10 51°20.377 2°51.305 21.0715 0.079833 0.423701 -1.035392
2010-05-25 08:18:15 51°20.393 2°51.303 21.0694 0.079833 0.423701 -1.035392
2010-05-25 08:18:20 51°20.409 2°51.301 21.0789 0.079833 0.423714 -1.035392
2010-05-25 08:18:24 51°20.422 2°51.299 21.0836 0.079728 0.423162 -1.035392
2010-05-25 08:18:30 51°20.442 2°51.296 21.0672 0.079833 0.42374 -1.035392
2010-05-25 08:18:35 51°20.458 2°51.294 21.08 0.079728 0.423188 -1.035392
2010-05-25 08:18:40 51°20.475 2°51.291 21.084 0.079728 0.423201 -1.000568
2010-05-25 08:18:45 51°20.491 2°51.289 21.069 0.079728 0.423201 -1.000568
2010-05-25 08:18:50 51°20.507 2°51.287 21.0745 0.079728 0.423221 -1.035392
2010-05-25 08:18:55 51°20.523 2°51.284 21.0945 0.079728 0.423234 -1.000568
2010-05-25 08:19:00 51°20.539 2°51.282 21.0744 0.079728 0.423241 -1.000568
2010-05-25 08:19:05 51°20.555 2°51.28 21.088 0.079728 0.42326 -1.035392
2010-05-25 08:19:10 51°20.572 2°51.278 21.0778 0.079728 0.42328 -1.000568
2010-05-25 08:19:15 51°20.588 2°51.276 21.0946 0.079728 0.42328 -1.000568
2010-05-25 08:19:20 51°20.604 2°51.273 21.0937 0.079728 0.423286 -1.000568
2010-05-25 08:19:24 51°20.617 2°51.272 21.0909 0.079728 0.423306 -1.035392
2010-05-25 08:19:30 51°20.637 2°51.27 21.0749 0.079728 0.423313 -1.000568
2010-05-25 08:19:35 51°20.653 2°51.268 21.0926 0.079728 0.423319 -1.000568
2010-05-25 08:19:40 51°20.67 2°51.266 21.0834 0.079728 0.423345 -1.035392
2010-05-25 08:19:44 51°20.683 2°51.264 21.0851 0.079728 0.423345 -1.035392
2010-05-25 08:19:50 51°20.703 2°51.262 21.092 0.079728 0.423352 -1.000568
2010-05-25 08:19:55 51°20.719 2°51.261 21.097 0.079728 0.423365 -1.035392
2010-05-25 08:20:00 51°20.735 2°51.258 21.082 0.079728 0.423378 -1.000568
2010-05-25 08:20:04 51°20.748 2°51.256 21.1088 0.079728 0.423391 -1.000568
2010-05-25 08:20:10 51°20.768 2°51.254 21.0887 0.079728 0.423411 -1.035392
2010-05-25 08:20:15 51°20.785 2°51.252 21.101 0.079728 0.423411 -1.035392
2010-05-25 08:20:20 51°20.801 2°51.249 21.0932 0.079728 0.423424 -1.035392
2010-05-25 08:20:24 51°20.814 2°51.248 21.0906 0.079728 0.42345 -1.000568
2010-05-25 08:20:30 51°20.834 2°51.245 21.0962 0.079728 0.423457 -1.035392
2010-05-25 08:20:35 51°20.85 2°51.242 21.0977 0.079729 0.423476 -1.000568
2010-05-25 08:20:40 51°20.866 2°51.24 21.097 0.079729 0.423489 -1.035392
2010-05-25 08:20:45 51°20.883 2°51.238 21.1117 0.079729 0.423489 -1.035392
2010-05-25 08:20:50 51°20.9 2°51.236 21.0965 0.079729 0.423496 -1.035392
2010-05-25 08:20:55 51°20.916 2°51.235 21.1073 0.079729 0.423522 -1.000568
2010-05-25 08:21:00 51°20.932 2°51.233 21.1117 0.079729 0.423529 -1.035392
2010-05-25 08:21:05 51°20.949 2°51.231 21.1105 0.079729 0.423548 -1.000568
2010-05-25 08:21:10 51°20.965 2°51.228 21.1154 0.079624 0.423009 -1.035392
2010-05-25 08:21:15 51°20.982 2°51.226 21.1093 0.079624 0.423009 -1.035392
2010-05-25 08:21:20 51°20.998 2°51.223 21.1063 0.079624 0.423016 -1.035392
2010-05-25 08:21:24 51°21.011 2°51.221 21.1146 0.079624 0.423029 -1.000568
2010-05-25 08:21:30 51°21.031 2°51.219 21.0984 0.079624 0.423048 -1.035392
2010-05-25 08:21:35 51°21.047 2°51.216 21.1137 0.079624 0.423075 -1.035392
2010-05-25 08:21:40 51°21.063 2°51.214 21.1006 0.079624 0.423075 -1.035392
2010-05-25 08:21:44 51°21.077 2°51.212 21.1105 0.079624 0.423075 -1.035392
2010-05-25 08:21:50 51°21.096 2°51.21 21.0916 0.079624 0.423094 -1.035392
2010-05-25 08:21:55 51°21.113 2°51.208 21.1203 0.079624 0.423114 -1.035392
2010-05-25 08:22:00 51°21.129 2°51.206 21.1112 0.079624 0.423134 -1.035392
2010-05-25 08:22:04 51°21.143 2°51.204 21.1152 0.079624 0.423147 -1.035392
2010-05-25 08:22:09 51°21.159 2°51.202 21.1161 0.079624 0.423166 -1.000568
2010-05-25 08:22:15 51°21.179 2°51.199 21.1202 0.079624 0.423166 -1.000568
2010-05-25 08:22:20 51°21.195 2°51.197 21.1087 0.079624 0.423179 -1.000568
2010-05-25 08:22:25 51°21.212 2°51.195 21.1154 0.079624 0.423193 -1.035392
2010-05-25 08:22:30 51°21.228 2°51.192 21.1153 0.079624 0.423212 -1.000568
2010-05-25 08:22:35 51°21.245 2°51.19 21.123 0.079624 0.423225 -1.035392
2010-05-25 08:22:40 51°21.261 2°51.187 21.1197 0.079624 0.423245 -1.035392
2010-05-25 08:22:45 51°21.278 2°51.185 21.1149 0.079624 0.423245 -1.035392
2010-05-25 08:22:50 51°21.294 2°51.182 21.1245 0.079624 0.423258 -1.000568
2010-05-25 08:22:55 51°21.311 2°51.179 21.1187 0.079624 0.423278 -1.035392
2010-05-25 08:23:00 51°21.327 2°51.177 21.123 0.079624 0.423284 -1.000568
2010-05-25 08:23:05 51°21.344 2°51.174 21.1208 0.079624 0.423304 -1.035392
2010-05-25 08:23:10 51°21.36 2°51.171 21.1213 0.079624 0.423304 -1.000568
2010-05-25 08:23:15 51°21.377 2°51.169 21.119 0.079624 0.423304 -1.000568
2010-05-25 08:23:20 51°21.393 2°51.167 21.1356 0.079624 0.42333 -1.000568
2010-05-25 08:23:24 51°21.406 2°51.165 21.1323 0.079624 0.423343 -1.000568
2010-05-25 08:23:30 51°21.426 2°51.162 21.1286 0.079624 0.423356 -1.000568
2010-05-25 08:23:35 51°21.443 2°51.159 21.1283 0.079624 0.423376 -1.035392
2010-05-25 08:23:40 51°21.459 2°51.157 21.1302 0.079624 0.423383 -1.000568
2010-05-25 08:23:44 51°21.473 2°51.154 21.1326 0.079624 0.423383 -1.000568
2010-05-25 08:23:50 51°21.492 2°51.152 21.1151 0.079624 0.423396 -1.035392
2010-05-25 08:23:55 51°21.509 2°51.149 21.1341 0.079624 0.423409 -1.000568
2010-05-25 08:24:00 51°21.525 2°51.147 21.1305 0.079624 0.423429 -1.000568
2010-05-25 08:24:04 51°21.539 2°51.145 21.1329 0.079624 0.423448 -1.035392
2010-05-25 08:24:10 51°21.558 2°51.143 21.136 0.079624 0.423461 -1.000568
2010-05-25 08:24:15 51°21.575 2°51.14 21.1349 0.079624 0.423461 -1.000568
2010-05-25 08:24:20 51°21.591 2°51.138 21.1301 0.079624 0.423481 -1.035392
2010-05-25 08:24:24 51°21.605 2°51.136 21.1475 0.07952 0.422922 -1.000568
2010-05-25 08:24:30 51°21.624 2°51.134 21.134 0.07952 0.422935 -1.035392
2010-05-25 08:24:35 51°21.641 2°51.132 21.1395 0.07952 0.422941 -1.035392
2010-05-25 08:24:40 51°21.657 2°51.131 21.1318 0.07952 0.422961 -1.000568
2010-05-25 08:24:44 51°21.671 2°51.129 21.1378 0.07952 0.422961 -1.000568
2010-05-25 08:24:50 51°21.69 2°51.127 21.1259 0.07952 0.422967 -1.035392
2010-05-25 08:24:55 51°21.707 2°51.125 21.1364 0.07952 0.422981 -1.035392
2010-05-25 08:25:00 51°21.723 2°51.123 21.1488 0.07952 0.423007 -1.000568
2010-05-25 08:25:04 51°21.737 2°51.122 21.1403 0.07952 0.42302 -1.035392
2010-05-25 08:25:10 51°21.756 2°51.12 21.1481 0.07952 0.423033 -1.035392
2010-05-25 08:25:15 51°21.773 2°51.118 21.1445 0.07952 0.423033 -1.035392
2010-05-25 08:25:20 51°21.79 2°51.115 21.141 0.07952 0.423053 -1.000568
2010-05-25 08:25:25 51°21.806 2°51.113 21.1521 0.07952 0.423059 -1.035392
2010-05-25 08:25:30 51°21.823 2°51.11 21.1504 0.07952 0.423079 -1.000568
2010-05-25 08:25:35 51°21.839 2°51.108 21.1581 0.07952 0.423092 -1.035392
2010-05-25 08:25:40 51°21.856 2°51.105 21.1343 0.07952 0.423099 -1.000568
2010-05-25 08:25:44 51°21.869 2°51.103 21.1654 0.07952 0.423099 -1.000568
2010-05-25 08:25:50 51°21.889 2°51.1 21.1413 0.07952 0.423118 -1.035392
2010-05-25 08:25:55 51°21.905 2°51.097 21.1244 0.07952 0.423138 -1.000568
2010-05-25 08:26:00 51°21.922 2°51.094 21.1543 0.07952 0.423151 -1.000568
2010-05-25 08:26:04 51°21.935 2°51.092 21.146 0.07952 0.423171 -1.035392
2010-05-25 08:26:10 51°21.955 2°51.089 21.1574 0.07952 0.423177 -1.000568
2010-05-25 08:26:15 51°21.971 2°51.086 21.1496 0.07952 0.423177 -1.000568
2010-05-25 08:26:20 51°21.988 2°51.084 21.1521 0.07952 0.42319 -1.035392
2010-05-25 08:26:24 51°22.001 2°51.083 21.1441 0.07952 0.42321 -1.035392
2010-05-25 08:26:30 51°22.021 2°51.079 21.1562 0.07952 0.42323 -1.000568
2010-05-25 08:26:35 51°22.038 2°51.077 21.1563 0.07952 0.423243 -1.035392
2010-05-25 08:26:40 51°22.054 2°51.075 21.1471 0.07952 0.42325 -1.000568
2010-05-25 08:26:44 51°22.067 2°51.072 21.1517 0.07952 0.42325 -1.000568
2010-05-25 08:26:50 51°22.087 2°51.069 21.1626 0.07952 0.423269 -1.035392
2010-05-25 08:26:55 51°22.104 2°51.067 21.1492 0.079416 0.422709 -1.000568
2010-05-25 08:27:00 51°22.12 2°51.064 21.1481 0.07952 0.423302 -1.000568
2010-05-25 08:27:04 51°22.133 2°51.062 21.1552 0.079416 0.422742 -1.035392
2010-05-25 08:27:10 51°22.153 2°51.059 21.1622 0.07952 0.423328 -1.000568
2010-05-25 08:27:15 51°22.17 2°51.056 21.1646 0.07952 0.423328 -1.000568
2010-05-25 08:27:20 51°22.186 2°51.053 21.1663 0.079416 0.422775 -1.035392
2010-05-25 08:27:24 51°22.2 2°51.051 21.1646 0.079416 0.422781 -1.000568
2010-05-25 08:27:30 51°22.22 2°51.048 21.1714 0.079416 0.422808 -1.035392
2010-05-25 08:27:35 51°22.236 2°51.046 21.1606 0.079416 0.422814 -1.035392
2010-05-25 08:27:40 51°22.253 2°51.043 21.1666 0.079416 0.422841 -1.035392
2010-05-25 08:27:45 51°22.27 2°51.041 21.1584 0.079416 0.422841 -1.035392
2010-05-25 08:27:50 51°22.286 2°51.038 21.1738 0.079416 0.422847 -1.035392
2010-05-25 08:27:55 51°22.303 2°51.036 21.1711 0.079416 0.422867 -1.000568
2010-05-25 08:28:00 51°22.32 2°51.033 21.173 0.079416 0.42288 -1.000568
2010-05-25 08:28:04 51°22.333 2°51.031 21.1692 0.079416 0.4229 -1.000568
2010-05-25 08:28:10 51°22.353 2°51.028 21.1748 0.079416 0.422913 -1.000568
2010-05-25 08:28:15 51°22.369 2°51.025 21.162 0.079416 0.422913 -1.000568
2010-05-25 08:28:20 51°22.386 2°51.023 21.1721 0.079416 0.422939 -1.035392
2010-05-25 08:28:24 51°22.399 2°51.02 21.1792 0.079416 0.422952 -1.035392
2010-05-25 08:28:30 51°22.419 2°51.018 21.1764 0.079416 0.422972 -1.035392
2010-05-25 08:28:35 51°22.436 2°51.015 21.1725 0.079416 0.422992 -1.000568
2010-05-25 08:28:40 51°22.453 2°51.013 21.1743 0.079416 0.423005 -1.000568
2010-05-25 08:28:44 51°22.466 2°51.011 21.1758 0.079416 0.423005 -1.000568
2010-05-25 08:28:49 51°22.483 2°51.008 21.1714 0.079416 0.423031 -1.035392
2010-05-25 08:28:55 51°22.503 2°51.005 21.1821 0.079416 0.423038 -1.000568
2010-05-25 08:29:00 51°22.52 2°51.002 21.1807 0.079416 0.423057 -1.035392
2010-05-25 08:29:04 51°22.533 2°51 21.1822 0.079416 0.423077 -1.000568
2010-05-25 08:29:09 51°22.55 2°50.998 21.1829 0.079416 0.42309 -1.000568
2010-05-25 08:29:15 51°22.57 2°50.995 21.1835 0.079416 0.42309 -1.000568
2010-05-25 08:29:20 51°22.587 2°50.992 21.1936 0.079416 0.423116 -1.035392
2010-05-25 08:29:25 51°22.604 2°50.99 21.1787 0.079416 0.42313 -1.000568
2010-05-25 08:29:30 51°22.62 2°50.988 21.191 0.079416 0.423156 -1.035392
2010-05-25 08:29:35 51°22.637 2°50.986 21.1937 0.079416 0.423169 -1.000568
2010-05-25 08:29:40 51°22.654 2°50.983 21.1733 0.079312 0.422615 -1.035392
2010-05-25 08:29:45 51°22.671 2°50.982 21.1908 0.079312 0.422615 -1.035392
2010-05-25 08:29:50 51°22.688 2°50.981 21.1966 0.079416 0.423202 -1.000568
2010-05-25 08:29:55 51°22.705 2°50.979 21.1815 0.079312 0.422641 -1.000568
2010-05-25 08:30:00 51°22.722 2°50.978 21.1768 0.079312 0.422668 -1.035392
2010-05-25 08:30:05 51°22.739 2°50.977 21.1915 0.079312 0.422681 -1.035392
2010-05-25 08:30:10 51°22.755 2°50.975 21.1747 0.079312 0.4227 -1.035392
2010-05-25 08:30:15 51°22.772 2°50.974 21.1982 0.079312 0.4227 -1.035392
2010-05-25 08:30:20 51°22.789 2°50.972 21.1894 0.079312 0.42272 -1.000568
2010-05-25 08:30:24 51°22.803 2°50.971 21.1925 0.079312 0.42274 -1.000568
2010-05-25 08:30:30 51°22.823 2°50.968 21.1753 0.079312 0.422753 -1.000568
2010-05-25 08:30:35 51°22.84 2°50.966 21.2029 0.079312 0.422766 -1.000568
2010-05-25 08:30:40 51°22.857 2°50.964 21.1856 0.079312 0.422786 -1.035392
2010-05-25 08:30:44 51°22.87 2°50.962 21.195 0.079312 0.422786 -1.035392
2010-05-25 08:30:50 51°22.891 2°50.959 21.1919 0.079312 0.422805 -1.000568
2010-05-25 08:30:55 51°22.907 2°50.957 21.1906 0.079312 0.422819 -1.035392
2010-05-25 08:31:00 51°22.924 2°50.955 21.1951 0.079312 0.422838 -1.000568
2010-05-25 08:31:04 51°22.938 2°50.953 21.2005 0.079312 0.422852 -1.000568
2010-05-25 08:31:10 51°22.957 2°50.95 21.1909 0.079312 0.422871 -1.035392
2010-05-25 08:31:15 51°22.974 2°50.949 21.1942 0.079312 0.422871 -1.035392
2010-05-25 08:31:20 51°22.991 2°50.947 21.2 0.079312 0.422891 -1.035392
2010-05-25 08:31:24 51°23.004 2°50.946 21.2023 0.079312 0.422904 -1.035392
2010-05-25 08:31:30 51°23.023 2°50.944 21.1893 0.079312 0.422937 -1.000568
2010-05-25 08:31:35 51°23.04 2°50.942 21.2062 0.079312 0.42295 -1.035392
2010-05-25 08:31:40 51°23.057 2°50.94 21.2047 0.079312 0.42297 -1.000568
2010-05-25 08:31:44 51°23.07 2°50.939 21.1954 0.079312 0.42297 -1.000568
2010-05-25 08:31:50 51°23.09 2°50.937 21.2136 0.079312 0.422983 -1.035392
2010-05-25 08:31:55 51°23.106 2°50.935 21.2122 0.079312 0.42299 -1.035392
2010-05-25 08:32:00 51°23.122 2°50.933 21.2101 0.079312 0.423009 -1.000568
2010-05-25 08:32:05 51°23.139 2°50.932 21.1886 0.079312 0.423029 -1.035392
2010-05-25 08:32:10 51°23.155 2°50.93 21.209 0.079312 0.423049 -1.000568
2010-05-25 08:32:15 51°23.171 2°50.928 21.2148 0.079312 0.423049 -1.000568
2010-05-25 08:32:20 51°23.188 2°50.926 21.1997 0.079312 0.423062 -1.000568
2010-05-25 08:32:25 51°23.204 2°50.924 21.2203 0.079312 0.423075 -1.035392
2010-05-25 08:32:30 51°23.22 2°50.922 21.2136 0.079312 0.423102 -1.000568
2010-05-25 08:32:35 51°23.237 2°50.92 21.2007 0.079208 0.42254 -1.000568
2010-05-25 08:32:40 51°23.253 2°50.918 21.2128 0.079208 0.422553 -1.035392
2010-05-25 08:32:44 51°23.266 2°50.917 21.2154 0.079208 0.422553 -1.035392
2010-05-25 08:32:50 51°23.285 2°50.914 21.2168 0.079208 0.422573 -1.000568
2010-05-25 08:32:55 51°23.302 2°50.913 21.2219 0.079312 0.423161 -1.000568
2010-05-25 08:33:00 51°23.318 2°50.911 21.2205 0.079208 0.422606 -1.035392
2010-05-25 08:33:04 51°23.331 2°50.909 21.2103 0.079208 0.422626 -1.000568
2010-05-25 08:33:10 51°23.35 2°50.907 21.222 0.079208 0.422639 -1.000568
2010-05-25 08:33:15 51°23.367 2°50.904 21.2245 0.079208 0.422639 -1.000568
2010-05-25 08:33:20 51°23.383 2°50.903 21.224 0.079208 0.422646 -1.035392
2010-05-25 08:33:24 51°23.396 2°50.901 21.2228 0.079208 0.422672 -1.000568
2010-05-25 08:33:30 51°23.415 2°50.898 21.2124 0.079208 0.422678 -1.035392
2010-05-25 08:33:35 51°23.432 2°50.896 21.2148 0.079208 0.422698 -1.000568
2010-05-25 08:33:40 51°23.448 2°50.894 21.2314 0.079208 0.422718 -1.000568
2010-05-25 08:33:44 51°23.461 2°50.892 21.2324 0.079208 0.422718 -1.000568
2010-05-25 08:33:50 51°23.48 2°50.89 21.224 0.079208 0.422731 -1.000568
2010-05-25 08:33:55 51°23.497 2°50.888 21.2269 0.079208 0.422751 -1.035392
2010-05-25 08:34:00 51°23.513 2°50.886 21.2198 0.079208 0.422771 -1.000568
2010-05-25 08:34:05 51°23.529 2°50.883 21.2233 0.079208 0.42279 -1.000568
2010-05-25 08:34:10 51°23.546 2°50.882 21.2287 0.079208 0.422804 -1.000568
2010-05-25 08:34:15 51°23.562 2°50.879 21.2283 0.079208 0.422804 -1.000568
2010-05-25 08:34:20 51°23.578 2°50.877 21.2238 0.079208 0.42281 -1.000568
2010-05-25 08:34:25 51°23.595 2°50.875 21.2353 0.079208 0.42283 -1.035392
2010-05-25 08:34:30 51°23.611 2°50.873 21.2357 0.079208 0.422836 -1.000568
2010-05-25 08:34:35 51°23.627 2°50.871 21.2268 0.079208 0.422863 -1.035392
2010-05-25 08:34:40 51°23.644 2°50.869 21.2385 0.079208 0.422876 -1.035392
2010-05-25 08:34:45 51°23.66 2°50.867 21.2451 0.079208 0.422902 -1.000568
2010-05-25 08:34:50 51°23.676 2°50.865 21.2298 0.079208 0.422902 -1.000568
2010-05-25 08:34:55 51°23.693 2°50.863 21.2405 0.079208 0.422909 -1.035392
2010-05-25 08:35:00 51°23.709 2°50.861 21.2414 0.079208 0.422922 -1.035392
2010-05-25 08:35:04 51°23.722 2°50.858 21.2355 0.079208 0.422942 -1.035392
2010-05-25 08:35:10 51°23.742 2°50.856 21.2417 0.079208 0.422955 -1.000568
2010-05-25 08:35:15 51°23.758 2°50.854 21.2321 0.079208 0.422955 -1.000568
2010-05-25 08:35:20 51°23.774 2°50.852 21.2433 0.079208 0.422981 -0.965744
2010-05-25 08:35:24 51°23.787 2°50.85 21.2306 0.079104 0.42242 -1.035392
2010-05-25 08:35:30 51°23.807 2°50.847 21.2504 0.079104 0.422439 -1.000568
2010-05-25 08:35:35 51°23.823 2°50.845 21.2273 0.079104 0.422453 -0.965744
2010-05-25 08:35:40 51°23.84 2°50.843 21.2417 0.079104 0.422466 -1.000568
2010-05-25 08:35:44 51°23.853 2°50.841 21.2392 0.079104 0.422466 -1.000568
2010-05-25 08:35:49 51°23.869 2°50.838 21.2364 0.079104 0.422485 -1.035392
2010-05-25 08:35:55 51°23.889 2°50.836 21.2483 0.079104 0.422499 -1.000568
2010-05-25 08:36:00 51°23.906 2°50.834 21.2473 0.079104 0.422512 -1.000568
2010-05-25 08:36:05 51°23.922 2°50.832 21.2495 0.079104 0.422538 -1.000568
2010-05-25 08:36:10 51°23.939 2°50.83 21.2482 0.079104 0.422551 -1.000568
2010-05-25 08:36:15 51°23.955 2°50.828 21.2492 0.079104 0.422551 -1.000568
2010-05-25 08:36:20 51°23.972 2°50.825 21.2534 0.079104 0.422571 -1.000568
2010-05-25 08:36:25 51°23.988 2°50.823 21.2437 0.079104 0.422591 -1.000568
2010-05-25 08:36:30 51°24.005 2°50.821 21.2617 0.079104 0.422604 -1.035392
2010-05-25 08:36:35 51°24.021 2°50.818 21.2433 0.079104 0.422624 -1.000568
2010-05-25 08:36:40 51°24.038 2°50.816 21.2558 0.079104 0.422637 -1.035392
2010-05-25 08:36:45 51°24.054 2°50.814 21.261 0.079104 0.422637 -1.035392
2010-05-25 08:36:50 51°24.071 2°50.811 21.2577 0.079104 0.42265 -1.035392
2010-05-25 08:36:55 51°24.087 2°50.809 21.2505 0.079104 0.42267 -1.000568
2010-05-25 08:37:00 51°24.103 2°50.806 21.2595 0.079104 0.422683 -1.035392
2010-05-25 08:37:04 51°24.117 2°50.804 21.2482 0.079104 0.422703 -1.000568
2010-05-25 08:37:10 51°24.137 2°50.802 21.2575 0.079104 0.422723 -1.000568
2010-05-25 08:37:15 51°24.153 2°50.799 21.2628 0.079104 0.422723 -1.000568
2010-05-25 08:37:20 51°24.17 2°50.797 21.2561 0.079104 0.422729 -1.000568
2010-05-25 08:37:24 51°24.183 2°50.795 21.2647 0.079104 0.422749 -1.000568
2010-05-25 08:37:30 51°24.203 2°50.793 21.2572 0.079104 0.422756 -1.000568
2010-05-25 08:37:35 51°24.219 2°50.791 21.2649 0.079104 0.422789 -1.000568
2010-05-25 08:37:40 51°24.236 2°50.789 21.2593 0.079104 0.422795 -1.035392
2010-05-25 08:37:44 51°24.249 2°50.786 21.2581 0.079104 0.422795 -1.035392
2010-05-25 08:37:50 51°24.269 2°50.783 21.264 0.079104 0.422815 -1.000568
2010-05-25 08:37:55 51°24.285 2°50.781 21.2541 0.079104 0.422828 -1.000568
2010-05-25 08:38:00 51°24.302 2°50.779 21.2687 0.079104 0.422841 -1.035392
2010-05-25 08:38:04 51°24.315 2°50.777 21.2682 0.079104 0.422861 -1.035392
2010-05-25 08:38:10 51°24.335 2°50.775 21.2738 0.079 0.422292 -1.000568
2010-05-25 08:38:15 51°24.351 2°50.773 21.2634 0.079 0.422292 -1.000568
2010-05-25 08:38:20 51°24.368 2°50.771 21.2743 0.079 0.422312 -1.000568
2010-05-25 08:38:24 51°24.381 2°50.769 21.2726 0.079 0.422332 -1.000568
2010-05-25 08:38:30 51°24.401 2°50.767 21.2696 0.079104 0.422914 -1.035392
2010-05-25 08:38:35 51°24.418 2°50.765 21.2673 0.079 0.422365 -1.000568
2010-05-25 08:38:40 51°24.434 2°50.763 21.2692 0.079 0.422378 -1.035392
2010-05-25 08:38:45 51°24.451 2°50.76 21.2664 0.079 0.422378 -1.035392
2010-05-25 08:38:50 51°24.467 2°50.758 21.2728 0.079 0.422398 -1.035392
2010-05-25 08:38:55 51°24.484 2°50.755 21.2753 0.079 0.422404 -1.035392
2010-05-25 08:39:00 51°24.5 2°50.753 21.2824 0.079 0.422424 -0.965744
2010-05-25 08:39:05 51°24.517 2°50.751 21.2819 0.079 0.422444 -1.000568
2010-05-25 08:39:10 51°24.533 2°50.748 21.2752 0.079 0.422464 -1.035392
2010-05-25 08:39:15 51°24.55 2°50.747 21.2777 0.079 0.422464 -1.035392
2010-05-25 08:39:20 51°24.567 2°50.745 21.2745 0.079 0.422464 -1.000568
2010-05-25 08:39:24 51°24.58 2°50.742 21.2786 0.079 0.42249 -1.035392
2010-05-25 08:39:30 51°24.6 2°50.74 21.2825 0.079 0.422503 -1.000568
2010-05-25 08:39:35 51°24.616 2°50.737 21.2874 0.079 0.422516 -1.000568
2010-05-25 08:39:40 51°24.633 2°50.735 21.2794 0.079 0.422536 -1.035392
2010-05-25 08:39:44 51°24.646 2°50.732 21.2711 0.079 0.422536 -1.035392
2010-05-25 08:39:50 51°24.666 2°50.729 21.2865 0.079 0.422549 -1.000568
2010-05-25 08:39:55 51°24.683 2°50.727 21.2751 0.079 0.422556 -1.000568
2010-05-25 08:40:00 51°24.7 2°50.725 21.2921 0.079 0.422576 -1.035392
2010-05-25 08:40:04 51°24.713 2°50.724 21.2855 0.079 0.422596 -1.000568
2010-05-25 08:40:10 51°24.733 2°50.721 21.2885 0.079 0.422615 -1.000568
2010-05-25 08:40:15 51°24.75 2°50.718 21.2899 0.079 0.422615 -1.000568
2010-05-25 08:40:20 51°24.766 2°50.716 21.2829 0.079 0.422629 -1.000568
2010-05-25 08:40:24 51°24.78 2°50.714 21.2856 0.079 0.422635 -1.000568
2010-05-25 08:40:30 51°24.8 2°50.711 21.2887 0.079 0.422662 -1.000568
2010-05-25 08:40:35 51°24.816 2°50.709 21.289 0.079 0.422668 -1.035392
2010-05-25 08:40:40 51°24.833 2°50.706 21.2885 0.079 0.422688 -1.035392
2010-05-25 08:40:44 51°24.846 2°50.704 21.2941 0.079 0.422688 -1.035392
2010-05-25 08:40:50 51°24.866 2°50.701 21.2938 0.079 0.422701 -1.035392
2010-05-25 08:40:55 51°24.883 2°50.699 21.294 0.079 0.422715 -1.000568
2010-05-25 08:41:00 51°24.899 2°50.697 21.2973 0.079 0.422728 -1.035392
2010-05-25 08:41:05 51°24.916 2°50.695 21.2892 0.079 0.422748 -0.965744
2010-05-25 08:41:10 51°24.933 2°50.693 21.291 0.078896 0.422185 -1.000568
2010-05-25 08:41:15 51°24.949 2°50.691 21.2939 0.078896 0.422185 -1.000568
2010-05-25 08:41:20 51°24.966 2°50.689 21.3001 0.078896 0.422198 -1.000568
2010-05-25 08:41:24 51°24.98 2°50.688 21.2968 0.078896 0.422211 -1.000568
2010-05-25 08:41:30 51°25 2°50.687 21.2998 0.078896 0.422231 -1.035392
2010-05-25 08:41:35 51°25.017 2°50.686 21.2971 0.078896 0.422251 -1.035392
2010-05-25 08:41:40 51°25.034 2°50.684 21.3048 0.078896 0.422257 -1.035392
2010-05-25 08:41:44 51°25.047 2°50.683 21.3048 0.078896 0.422257 -1.035392
2010-05-25 08:41:50 51°25.067 2°50.681 21.2978 0.078896 0.422284 -1.035392
2010-05-25 08:41:55 51°25.084 2°50.679 21.2863 0.078896 0.422297 -1.000568
2010-05-25 08:42:00 51°25.101 2°50.677 21.2874 0.078896 0.422317 -1.000568
2010-05-25 08:42:04 51°25.114 2°50.676 21.3028 0.078896 0.422323 -1.035392
2010-05-25 08:42:10 51°25.135 2°50.673 21.2997 0.078896 0.422336 -1.035392
2010-05-25 08:42:15 51°25.151 2°50.671 21.3019 0.078896 0.422336 -1.035392
2010-05-25 08:42:20 51°25.168 2°50.669 21.2994 0.078896 0.42235 -1.070216
2010-05-25 08:42:24 51°25.182 2°50.668 21.3109 0.078896 0.422363 -1.000568
2010-05-25 08:42:29 51°25.199 2°50.667 21.2969 0.078896 0.422383 -1.000568
2010-05-25 08:42:35 51°25.219 2°50.665 21.3031 0.078896 0.422396 -1.035392
2010-05-25 08:42:40 51°25.236 2°50.663 21.3097 0.078896 0.422409 -1.035392
2010-05-25 08:42:45 51°25.252 2°50.661 21.2984 0.078896 0.422409 -1.035392
2010-05-25 08:42:50 51°25.269 2°50.66 21.3107 0.078896 0.422422 -1.000568
2010-05-25 08:42:55 51°25.286 2°50.658 21.3134 0.078896 0.422442 -1.000568
2010-05-25 08:43:00 51°25.303 2°50.656 21.3068 0.078896 0.422455 -0.965744
2010-05-25 08:43:05 51°25.32 2°50.655 21.2902 0.078896 0.422475 -1.000568
2010-05-25 08:43:10 51°25.336 2°50.653 21.3006 0.078896 0.422488 -0.965744
2010-05-25 08:43:15 51°25.353 2°50.652 21.3056 0.078896 0.422488 -0.965744
2010-05-25 08:43:20 51°25.37 2°50.651 21.3109 0.078896 0.422502 -1.000568
2010-05-25 08:43:25 51°25.387 2°50.649 21.3139 0.078896 0.422515 -1.000568
2010-05-25 08:43:30 51°25.404 2°50.647 21.306 0.078896 0.422528 -1.000568
2010-05-25 08:43:35 51°25.421 2°50.645 21.3204 0.078896 0.422541 -1.000568
2010-05-25 08:43:40 51°25.438 2°50.644 21.3087 0.078896 0.422548 -1.035392
2010-05-25 08:43:45 51°25.454 2°50.642 21.3168 0.078896 0.422548 -1.035392
2010-05-25 08:43:50 51°25.471 2°50.641 21.3005 0.078896 0.422574 -1.035392
2010-05-25 08:43:55 51°25.488 2°50.639 21.3071 0.078896 0.422594 -1.000568
2010-05-25 08:44:00 51°25.505 2°50.638 21.2989 0.078792 0.422024 -1.035392
2010-05-25 08:44:04 51°25.518 2°50.637 21.313 0.078792 0.422044 -1.000568
2010-05-25 08:44:10 51°25.539 2°50.635 21.3282 0.078792 0.422057 -1.035392
2010-05-25 08:44:15 51°25.555 2°50.634 21.3257 0.078792 0.422057 -1.035392
2010-05-25 08:44:20 51°25.572 2°50.633 21.3237 0.078792 0.422077 -1.000568
2010-05-25 08:44:24 51°25.585 2°50.631 21.3197 0.078792 0.42209 -1.000568
2010-05-25 08:44:30 51°25.606 2°50.63 21.3246 0.078792 0.422103 -1.035392
2010-05-25 08:44:35 51°25.623 2°50.628 21.3249 0.078792 0.422117 -1.000568
2010-05-25 08:44:40 51°25.64 2°50.627 21.3293 0.078792 0.422123 -1.035392
2010-05-25 08:44:44 51°25.653 2°50.625 21.3114 0.078792 0.422123 -1.035392
2010-05-25 08:44:50 51°25.673 2°50.623 21.3188 0.078792 0.422143 -1.035392
2010-05-25 08:44:55 51°25.69 2°50.622 21.3317 0.078792 0.422156 -1.035392
2010-05-25 08:45:00 51°25.707 2°50.621 21.3195 0.078792 0.422169 -1.035392
2010-05-25 08:45:04 51°25.721 2°50.62 21.3299 0.078792 0.422183 -1.000568
2010-05-25 08:45:10 51°25.741 2°50.618 21.3234 0.078792 0.422202 -1.035392
2010-05-25 08:45:15 51°25.758 2°50.616 21.328 0.078792 0.422202 -1.035392
2010-05-25 08:45:20 51°25.775 2°50.615 21.3257 0.078792 0.422216 -1.000568
2010-05-25 08:45:25 51°25.792 2°50.614 21.3239 0.078792 0.422229 -1.035392
2010-05-25 08:45:30 51°25.809 2°50.612 21.323 0.078792 0.422235 -1.070216
2010-05-25 08:45:35 51°25.826 2°50.611 21.306 0.078792 0.422255 -1.035392
2010-05-25 08:45:40 51°25.843 2°50.61 21.3239 0.078792 0.422275 -1.035392
2010-05-25 08:45:45 51°25.86 2°50.609 21.3379 0.078792 0.422275 -1.035392
2010-05-25 08:45:50 51°25.877 2°50.607 21.3276 0.078792 0.422282 -1.035392
2010-05-25 08:45:55 51°25.894 2°50.607 21.3264 0.078792 0.422302 -1.000568
2010-05-25 08:46:00 51°25.911 2°50.605 21.3268 0.078792 0.422321 -1.000568
2010-05-25 08:46:05 51°25.928 2°50.604 21.3355 0.078792 0.422328 -1.000568
2010-05-25 08:46:10 51°25.944 2°50.603 21.3223 0.078792 0.422341 -1.000568
2010-05-25 08:46:15 51°25.962 2°50.601 21.3357 0.078792 0.422341 -1.000568
2010-05-25 08:46:20 51°25.979 2°50.601 21.338 0.078792 0.422355 -1.070216
2010-05-25 08:46:24 51°25.992 2°50.599 21.3243 0.078792 0.422374 -1.035392
2010-05-25 08:46:30 51°26.013 2°50.598 21.3403 0.078792 0.422381 -1.035392
2010-05-25 08:46:35 51°26.03 2°50.597 21.3424 0.078792 0.422401 -1.070216
2010-05-25 08:46:40 51°26.047 2°50.595 21.342 0.078792 0.422421 -1.000568
2010-05-25 08:46:44 51°26.061 2°50.594 21.3295 0.078792 0.422421 -1.000568
2010-05-25 08:46:50 51°26.081 2°50.592 21.3417 0.078792 0.422434 -1.000568
2010-05-25 08:46:55 51°26.098 2°50.59 21.3301 0.078792 0.422454 -1.000568
2010-05-25 08:47:00 51°26.115 2°50.588 21.3462 0.078792 0.42246 -1.000568
2010-05-25 08:47:04 51°26.129 2°50.586 21.3448 0.078792 0.42248 -1.035392
2010-05-25 08:47:10 51°26.15 2°50.585 21.35 0.078792 0.422494 -1.000568
2010-05-25 08:47:15 51°26.167 2°50.582 21.3398 0.078792 0.422494 -1.000568
2010-05-25 08:47:20 51°26.184 2°50.58 21.3473 0.078688 0.421929 -1.000568
2010-05-25 08:47:24 51°26.197 2°50.579 21.3439 0.078792 0.42252 -1.000568
2010-05-25 08:47:30 51°26.218 2°50.576 21.3455 0.078792 0.42254 -1.000568
2010-05-25 08:47:35 51°26.234 2°50.574 21.3436 0.078792 0.42256 -1.035392
2010-05-25 08:47:40 51°26.251 2°50.571 21.3472 0.078688 0.421996 -1.035392
2010-05-25 08:47:45 51°26.268 2°50.569 21.3351 0.078688 0.421996 -1.035392
2010-05-25 08:47:50 51°26.285 2°50.567 21.3484 0.078688 0.422009 -1.035392
2010-05-25 08:47:55 51°26.301 2°50.564 21.3461 0.078688 0.422015 -1.000568
2010-05-25 08:48:00 51°26.318 2°50.562 21.3534 0.078688 0.422042 -1.035392
2010-05-25 08:48:05 51°26.335 2°50.56 21.3506 0.078688 0.422055 -1.000568
2010-05-25 08:48:10 51°26.351 2°50.558 21.3501 0.078688 0.422068 -1.000568
2010-05-25 08:48:15 51°26.368 2°50.556 21.3593 0.078688 0.422068 -1.000568
2010-05-25 08:48:20 51°26.385 2°50.554 21.343 0.078688 0.422082 -1.000568
2010-05-25 08:48:24 51°26.398 2°50.552 21.356 0.078688 0.422101 -1.035392
2010-05-25 08:48:30 51°26.418 2°50.55 21.3519 0.078688 0.422115 -1.000568
2010-05-25 08:48:35 51°26.435 2°50.548 21.3564 0.078688 0.422141 -1.000568
2010-05-25 08:48:40 51°26.451 2°50.546 21.3637 0.078688 0.422148 -1.035392
2010-05-25 08:48:44 51°26.465 2°50.544 21.3514 0.078688 0.422148 -1.035392
2010-05-25 08:48:50 51°26.485 2°50.541 21.3527 0.078688 0.422174 -1.000568
2010-05-25 08:48:55 51°26.502 2°50.539 21.3436 0.078688 0.422187 -1.035392
2010-05-25 08:49:00 51°26.518 2°50.537 21.3635 0.078688 0.422201 -1.000568
2010-05-25 08:49:04 51°26.532 2°50.535 21.3472 0.078688 0.422214 -1.035392
2010-05-25 08:49:09 51°26.548 2°50.533 21.3536 0.078688 0.422234 -1.035392
2010-05-25 08:49:15 51°26.568 2°50.531 21.3556 0.078688 0.422234 -1.035392
2010-05-25 08:49:20 51°26.585 2°50.529 21.3573 0.078688 0.422247 -1.000568
2010-05-25 08:49:25 51°26.602 2°50.527 21.3455 0.078688 0.422274 -1.035392
2010-05-25 08:49:30 51°26.619 2°50.525 21.3514 0.078688 0.422287 -1.035392
2010-05-25 08:49:35 51°26.636 2°50.523 21.358 0.078688 0.422307 -1.035392
2010-05-25 08:49:40 51°26.652 2°50.521 21.3655 0.078688 0.42232 -1.035392
2010-05-25 08:49:45 51°26.669 2°50.518 21.3631 0.078688 0.42232 -1.035392
2010-05-25 08:49:50 51°26.686 2°50.516 21.3727 0.078688 0.422333 -1.000568
2010-05-25 08:49:55 51°26.702 2°50.514 21.355 0.078688 0.422346 -1.035392
2010-05-25 08:50:00 51°26.719 2°50.511 21.3703 0.078688 0.42236 -1.000568
2010-05-25 08:50:05 51°26.736 2°50.509 21.3618 0.078688 0.422386 -1.000568
2010-05-25 08:50:09 51°26.749 2°50.507 21.3573 0.078688 0.4224 -0.965744
2010-05-25 08:50:15 51°26.769 2°50.504 21.3623 0.078688 0.4224 -0.965744
2010-05-25 08:50:20 51°26.786 2°50.502 21.3716 0.078688 0.422419 -1.035392
2010-05-25 08:50:24 51°26.799 2°50.5 21.3675 0.078688 0.422433 -1.035392
2010-05-25 08:50:30 51°26.819 2°50.497 21.367 0.078688 0.422446 -1.035392
2010-05-25 08:50:35 51°26.836 2°50.495 21.3556 0.078688 0.422466 -1.000568
2010-05-25 08:50:40 51°26.853 2°50.492 21.3626 0.078688 0.422486 -1.000568
2010-05-25 08:50:44 51°26.866 2°50.49 21.3713 0.078688 0.422486 -1.000568
2010-05-25 08:50:50 51°26.886 2°50.488 21.3588 0.078688 0.422499 -1.000568
2010-05-25 08:50:55 51°26.902 2°50.486 21.3779 0.078688 0.422519 -1.035392
2010-05-25 08:51:00 51°26.919 2°50.484 21.3527 0.078688 0.422539 -1.000568
2010-05-25 08:51:05 51°26.936 2°50.481 21.3843 0.078688 0.422552 -1.035392
2010-05-25 08:51:09 51°26.949 2°50.48 21.3617 0.078688 0.422565 -1.035392
2010-05-25 08:51:15 51°26.969 2°50.478 21.3781 0.078688 0.422565 -1.035392
2010-05-25 08:51:20 51°26.986 2°50.475 21.3502 0.078688 0.422579 -1.000568
2010-05-25 08:51:24 51°26.999 2°50.474 21.3731 0.078584 0.42202 -1.035392
2010-05-25 08:51:30 51°27.019 2°50.472 21.377 0.078688 0.422605 -1.000568
2010-05-25 08:51:35 51°27.036 2°50.471 21.3697 0.078688 0.422632 -0.965744
2010-05-25 08:51:40 51°27.053 2°50.469 21.3777 0.078688 0.422645 -1.035392
2010-05-25 08:51:45 51°27.069 2°50.466 21.3667 0.078688 0.422645 -1.035392
2010-05-25 08:51:50 51°27.086 2°50.464 21.3792 0.078584 0.422087 -1.000568
2010-05-25 08:51:55 51°27.102 2°50.462 21.3717 0.078584 0.422106 -1.035392
2010-05-25 08:52:00 51°27.119 2°50.459 21.3795 0.078584 0.42212 -1.035392
2010-05-25 08:52:05 51°27.135 2°50.456 21.3753 0.078584 0.422133 -1.035392
2010-05-25 08:52:09 51°27.149 2°50.454 21.3857 0.078584 0.422153 -1.035392
2010-05-25 08:52:15 51°27.169 2°50.452 21.3624 0.078584 0.422153 -1.035392
2010-05-25 08:52:20 51°27.186 2°50.45 21.3839 0.078584 0.422166 -1.000568
2010-05-25 08:52:25 51°27.202 2°50.448 21.373 0.078584 0.422179 -1.000568
2010-05-25 08:52:30 51°27.219 2°50.445 21.3812 0.078584 0.422199 -1.000568
2010-05-25 08:52:35 51°27.236 2°50.443 21.3838 0.078584 0.422213 -1.000568
2010-05-25 08:52:40 51°27.252 2°50.441 21.3752 0.078584 0.422219 -1.035392
2010-05-25 08:52:44 51°27.266 2°50.439 21.3727 0.078584 0.422219 -1.035392
2010-05-25 08:52:50 51°27.286 2°50.436 21.3805 0.078584 0.422239 -1.000568
2010-05-25 08:52:55 51°27.303 2°50.435 21.3792 0.078584 0.422259 -1.035392
2010-05-25 08:53:00 51°27.319 2°50.432 21.3853 0.078584 0.422279 -1.000568
2010-05-25 08:53:05 51°27.336 2°50.43 21.3749 0.078584 0.422286 -0.965744
2010-05-25 08:53:09 51°27.349 2°50.428 21.3858 0.078584 0.422305 -1.000568
2010-05-25 08:53:15 51°27.37 2°50.426 21.3745 0.078584 0.422305 -1.000568
2010-05-25 08:53:20 51°27.387 2°50.423 21.3874 0.078584 0.422319 -1.000568
2010-05-25 08:53:24 51°27.4 2°50.421 21.3866 0.078584 0.422339 -1.035392
2010-05-25 08:53:30 51°27.42 2°50.418 21.3815 0.078584 0.422352 -1.035392
2010-05-25 08:53:35 51°27.437 2°50.416 21.3882 0.078584 0.422365 -1.000568
2010-05-25 08:53:40 51°27.454 2°50.414 21.3824 0.078584 0.422385 -1.035392
2010-05-25 08:53:44 51°27.467 2°50.412 21.3799 0.078584 0.422385 -1.035392
2010-05-25 08:53:50 51°27.488 2°50.41 21.3961 0.078584 0.422398 -1.000568
2010-05-25 08:53:55 51°27.505 2°50.407 21.393 0.078584 0.422418 -1.000568
2010-05-25 08:54:00 51°27.522 2°50.405 21.3857 0.078584 0.422432 -1.035392
2010-05-25 08:54:04 51°27.535 2°50.403 21.3928 0.078584 0.422452 -1.000568
2010-05-25 08:54:10 51°27.555 2°50.4 21.3702 0.078584 0.422471 -1.000568
2010-05-25 08:54:15 51°27.572 2°50.397 21.3976 0.078584 0.422471 -1.000568
2010-05-25 08:54:20 51°27.589 2°50.395 21.37 0.078584 0.422485 -1.000568
2010-05-25 08:54:25 51°27.606 2°50.391 21.3796 0.078584 0.422498 -1.000568
2010-05-25 08:54:30 51°27.623 2°50.39 21.3831 0.078584 0.422511 -1.000568
2010-05-25 08:54:35 51°27.64 2°50.387 21.3897 0.078584 0.422531 -1.035392
2010-05-25 08:54:40 51°27.657 2°50.385 21.4012 0.078584 0.422558 -1.000568
2010-05-25 08:54:45 51°27.674 2°50.382 21.3823 0.078584 0.422558 -1.000568
2010-05-25 08:54:50 51°27.691 2°50.38 21.3857 0.078584 0.422571 -1.035392
2010-05-25 08:54:55 51°27.708 2°50.378 21.3972 0.078584 0.422584 -1.000568
2010-05-25 08:55:00 51°27.725 2°50.375 21.395 0.078584 0.422598 -1.000568
2010-05-25 08:55:04 51°27.738 2°50.373 21.3939 0.078584 0.422618 -1.000568
2010-05-25 08:55:10 51°27.759 2°50.37 21.3794 0.078584 0.422631 -1.035392
2010-05-25 08:55:15 51°27.776 2°50.368 21.4022 0.078584 0.422631 -1.035392
2010-05-25 08:55:20 51°27.793 2°50.365 21.4031 0.078584 0.422658 -1.000568
2010-05-25 08:55:24 51°27.806 2°50.364 21.4062 0.078584 0.422664 -1.000568
2010-05-25 08:55:29 51°27.823 2°50.361 21.3845 0.078584 0.422684 -1.035392
2010-05-25 08:55:35 51°27.844 2°50.359 21.4018 0.078584 0.422698 -1.000568
2010-05-25 08:55:40 51°27.861 2°50.356 21.3982 0.078584 0.422718 -1.035392
2010-05-25 08:55:45 51°27.878 2°50.354 21.4068 0.078584 0.422718 -1.035392
2010-05-25 08:55:49 51°27.892 2°50.352 21.3852 0.078584 0.422737 -1.035392
2010-05-25 08:55:55 51°27.912 2°50.35 21.3987 0.078584 0.422757 -1.035392
2010-05-25 08:56:00 51°27.93 2°50.347 21.3992 0.078584 0.422764 -1.035392
2010-05-25 08:56:05 51°27.947 2°50.345 21.3858 0.078584 0.422777 -1.000568
2010-05-25 08:56:10 51°27.964 2°50.341 21.3974 0.078584 0.422804 -1.000568
2010-05-25 08:56:15 51°27.981 2°50.339 21.3844 0.078584 0.422804 -1.000568
2010-05-25 08:56:20 51°27.998 2°50.337 21.3988 0.078584 0.422811 -1.035392
2010-05-25 08:56:25 51°28.016 2°50.337 21.4002 0.078584 0.422824 -1.035392
2010-05-25 08:56:30 51°28.033 2°50.335 21.3848 0.078584 0.422837 -1.035392
2010-05-25 08:56:35 51°28.05 2°50.335 21.4048 0.078584 0.422864 -1.035392
2010-05-25 08:56:40 51°28.067 2°50.334 21.4045 0.078584 0.422877 -1.000568
2010-05-25 08:56:45 51°28.085 2°50.334 21.4095 0.078584 0.422877 -1.000568
2010-05-25 08:56:49 51°28.099 2°50.334 21.3984 0.078584 0.422891 -1.035392
2010-05-25 08:56:55 51°28.119 2°50.334 21.4077 0.078584 0.422911 -1.035392
2010-05-25 08:57:00 51°28.137 2°50.333 21.3975 0.078584 0.422931 -1.000568
2010-05-25 08:57:05 51°28.154 2°50.333 21.4025 0.078584 0.422937 -1.000568
2010-05-25 08:57:10 51°28.171 2°50.332 21.401 0.078584 0.422964 -0.965744
2010-05-25 08:57:15 51°28.189 2°50.332 21.4068 0.078584 0.422964 -0.965744
2010-05-25 08:57:20 51°28.206 2°50.331 21.4153 0.078584 0.422977 -1.000568
2010-05-25 08:57:24 51°28.22 2°50.331 21.414 0.078584 0.42299 -0.965744
2010-05-25 08:57:30 51°28.24 2°50.33 21.4068 0.078584 0.423004 -1.000568
2010-05-25 08:57:35 51°28.258 2°50.329 21.406 0.078584 0.423017 -1.000568
2010-05-25 08:57:40 51°28.275 2°50.329 21.4109 0.078584 0.423044 -1.035392
2010-05-25 08:57:45 51°28.292 2°50.328 21.4081 0.078584 0.423044 -1.035392
2010-05-25 08:57:49 51°28.306 2°50.328 21.4171 0.078584 0.42305 -1.000568
2010-05-25 08:57:55 51°28.327 2°50.327 21.4099 0.078584 0.42307 -1.035392
2010-05-25 08:58:00 51°28.344 2°50.327 21.4065 0.078584 0.42309 -1.035392
2010-05-25 08:58:04 51°28.358 2°50.327 21.413 0.078584 0.42311 -1.000568
2010-05-25 08:58:09 51°28.376 2°50.326 21.4184 0.078584 0.423124 -1.035392
2010-05-25 08:58:15 51°28.396 2°50.326 21.4136 0.078584 0.423124 -1.035392
2010-05-25 08:58:20 51°28.414 2°50.326 21.3923 0.07848 0.422564 -1.000568
2010-05-25 08:58:24 51°28.428 2°50.326 21.3932 0.07848 0.422564 -1.000568
2010-05-25 08:58:29 51°28.445 2°50.326 21.4233 0.078584 0.423164 -1.035392
2010-05-25 08:58:35 51°28.466 2°50.327 21.4102 0.07848 0.422604 -1.000568
2010-05-25 08:58:40 51°28.483 2°50.328 21.4195 0.078584 0.423197 -1.000568
2010-05-25 08:58:45 51°28.5 2°50.329 21.4123 0.078584 0.423197 -1.000568
2010-05-25 08:58:50 51°28.517 2°50.33 21.4041 0.078584 0.423211 -1.000568